<?xml version="1.0" encoding="UTF-8" standalone="no" ?>
<gpx xmlns="http://www.topografix.com/GPX/1/1" xmlns:xsi="http://www.w3.org/2001/XMLSchema-instance" xsi:schemaLocation="http://www.topografix.com/GPX/1/1 http://www.topografix.com/GPX/1/1/gpx.xsd" version="1.1" creator="VisuGPX - https://www.visugpx.com">
  <metadata>
    <name>Plan de l\'Aigle</name>
    <desc><![CDATA[Rando facile,beau panorama et beaucoup de vent!]]></desc>
  </metadata>
  <trk>
    <name><![CDATA[Plan de l\'Aigle_1]]></name>
    <trkseg>
      <trkpt lat="43.32129" lon="5.5563">
        <ele>273.8</ele>
        <time>2015-04-01T06:41:55Z</time>
      </trkpt>
      <trkpt lat="43.32129" lon="5.5563">
        <ele>273.9</ele>
        <time>2015-04-01T06:41:56Z</time>
      </trkpt>
      <trkpt lat="43.32129" lon="5.5563">
        <ele>273.7</ele>
        <time>2015-04-01T06:41:55Z</time>
      </trkpt>
      <trkpt lat="43.32144" lon="5.55617">
        <ele>285</ele>
        <time>2015-04-01T06:43:54Z</time>
      </trkpt>
      <trkpt lat="43.32145" lon="5.55616">
        <ele>284.2</ele>
        <time>2015-04-01T06:43:55Z</time>
      </trkpt>
      <trkpt lat="43.32167" lon="5.55579">
        <ele>285.3</ele>
        <time>2015-04-01T06:44:37Z</time>
      </trkpt>
      <trkpt lat="43.32176" lon="5.55559">
        <ele>287.7</ele>
        <time>2015-04-01T06:45:00Z</time>
      </trkpt>
      <trkpt lat="43.32177" lon="5.55558">
        <ele>287.8</ele>
        <time>2015-04-01T06:45:01Z</time>
      </trkpt>
      <trkpt lat="43.32207" lon="5.5558">
        <ele>294.5</ele>
        <time>2015-04-01T06:45:49Z</time>
      </trkpt>
      <trkpt lat="43.32224" lon="5.55586">
        <ele>294.8</ele>
        <time>2015-04-01T06:46:04Z</time>
      </trkpt>
      <trkpt lat="43.32225" lon="5.55587">
        <ele>294.8</ele>
        <time>2015-04-01T06:46:05Z</time>
      </trkpt>
      <trkpt lat="43.32258" lon="5.55598">
        <ele>293.6</ele>
        <time>2015-04-01T06:46:33Z</time>
      </trkpt>
      <trkpt lat="43.32275" lon="5.55603">
        <ele>291.3</ele>
        <time>2015-04-01T06:46:49Z</time>
      </trkpt>
      <trkpt lat="43.32291" lon="5.55594">
        <ele>292.6</ele>
        <time>2015-04-01T06:47:06Z</time>
      </trkpt>
      <trkpt lat="43.32292" lon="5.55594">
        <ele>292.6</ele>
        <time>2015-04-01T06:47:07Z</time>
      </trkpt>
      <trkpt lat="43.32324" lon="5.55587">
        <ele>295.2</ele>
        <time>2015-04-01T06:47:35Z</time>
      </trkpt>
      <trkpt lat="43.32341" lon="5.55582">
        <ele>296.6</ele>
        <time>2015-04-01T06:47:51Z</time>
      </trkpt>
      <trkpt lat="43.32359" lon="5.55582">
        <ele>296.7</ele>
        <time>2015-04-01T06:48:08Z</time>
      </trkpt>
      <trkpt lat="43.3236" lon="5.55582">
        <ele>297.1</ele>
        <time>2015-04-01T06:48:09Z</time>
      </trkpt>
      <trkpt lat="43.32372" lon="5.55612">
        <ele>287.2</ele>
        <time>2015-04-01T06:49:03Z</time>
      </trkpt>
      <trkpt lat="43.32355" lon="5.55612">
        <ele>286.2</ele>
        <time>2015-04-01T06:49:17Z</time>
      </trkpt>
      <trkpt lat="43.32354" lon="5.55611">
        <ele>286.2</ele>
        <time>2015-04-01T06:49:18Z</time>
      </trkpt>
      <trkpt lat="43.32376" lon="5.55642">
        <ele>277.2</ele>
        <time>2015-04-01T06:50:05Z</time>
      </trkpt>
      <trkpt lat="43.32393" lon="5.55649">
        <ele>276.8</ele>
        <time>2015-04-01T06:50:22Z</time>
      </trkpt>
      <trkpt lat="43.32394" lon="5.55649">
        <ele>276.7</ele>
        <time>2015-04-01T06:50:23Z</time>
      </trkpt>
      <trkpt lat="43.32428" lon="5.55646">
        <ele>273.6</ele>
        <time>2015-04-01T06:50:50Z</time>
      </trkpt>
      <trkpt lat="43.32445" lon="5.55648">
        <ele>271.8</ele>
        <time>2015-04-01T06:51:09Z</time>
      </trkpt>
      <trkpt lat="43.32454" lon="5.55669">
        <ele>269.2</ele>
        <time>2015-04-01T06:51:27Z</time>
      </trkpt>
      <trkpt lat="43.32454" lon="5.55671">
        <ele>268.6</ele>
        <time>2015-04-01T06:51:28Z</time>
      </trkpt>
      <trkpt lat="43.32432" lon="5.55706">
        <ele>263.2</ele>
        <time>2015-04-01T06:51:58Z</time>
      </trkpt>
      <trkpt lat="43.32416" lon="5.55716">
        <ele>264.5</ele>
        <time>2015-04-01T06:52:12Z</time>
      </trkpt>
      <trkpt lat="43.32402" lon="5.55728">
        <ele>265.2</ele>
        <time>2015-04-01T06:52:26Z</time>
      </trkpt>
      <trkpt lat="43.32386" lon="5.55739">
        <ele>267.3</ele>
        <time>2015-04-01T06:52:40Z</time>
      </trkpt>
      <trkpt lat="43.32385" lon="5.5574">
        <ele>267.2</ele>
        <time>2015-04-01T06:52:41Z</time>
      </trkpt>
      <trkpt lat="43.32366" lon="5.55777">
        <ele>262</ele>
        <time>2015-04-01T06:53:17Z</time>
      </trkpt>
      <trkpt lat="43.32352" lon="5.55788">
        <ele>265</ele>
        <time>2015-04-01T06:53:32Z</time>
      </trkpt>
      <trkpt lat="43.32335" lon="5.55798">
        <ele>268.6</ele>
        <time>2015-04-01T06:53:48Z</time>
      </trkpt>
      <trkpt lat="43.32335" lon="5.55799">
        <ele>268.6</ele>
        <time>2015-04-01T06:53:49Z</time>
      </trkpt>
      <trkpt lat="43.32315" lon="5.55835">
        <ele>269.3</ele>
        <time>2015-04-01T06:54:22Z</time>
      </trkpt>
      <trkpt lat="43.32322" lon="5.55857">
        <ele>277.1</ele>
        <time>2015-04-01T06:54:41Z</time>
      </trkpt>
      <trkpt lat="43.32338" lon="5.55847">
        <ele>282.2</ele>
        <time>2015-04-01T06:55:00Z</time>
      </trkpt>
      <trkpt lat="43.32339" lon="5.55847">
        <ele>282.5</ele>
        <time>2015-04-01T06:55:01Z</time>
      </trkpt>
      <trkpt lat="43.3237" lon="5.55828">
        <ele>284.2</ele>
        <time>2015-04-01T06:55:32Z</time>
      </trkpt>
      <trkpt lat="43.32386" lon="5.55821">
        <ele>283.6</ele>
        <time>2015-04-01T06:55:50Z</time>
      </trkpt>
      <trkpt lat="43.32404" lon="5.55817">
        <ele>282.1</ele>
        <time>2015-04-01T06:56:07Z</time>
      </trkpt>
      <trkpt lat="43.32405" lon="5.55817">
        <ele>281.8</ele>
        <time>2015-04-01T06:56:08Z</time>
      </trkpt>
      <trkpt lat="43.32433" lon="5.55844">
        <ele>275.2</ele>
        <time>2015-04-01T06:56:36Z</time>
      </trkpt>
      <trkpt lat="43.32444" lon="5.55863">
        <ele>272.1</ele>
        <time>2015-04-01T06:56:52Z</time>
      </trkpt>
      <trkpt lat="43.32453" lon="5.55882">
        <ele>267.7</ele>
        <time>2015-04-01T06:57:11Z</time>
      </trkpt>
      <trkpt lat="43.32454" lon="5.55883">
        <ele>267.7</ele>
        <time>2015-04-01T06:57:12Z</time>
      </trkpt>
      <trkpt lat="43.32471" lon="5.55886">
        <ele>280.2</ele>
        <time>2015-04-01T06:59:44Z</time>
      </trkpt>
      <trkpt lat="43.32488" lon="5.5588">
        <ele>284</ele>
        <time>2015-04-01T07:01:00Z</time>
      </trkpt>
      <trkpt lat="43.32523" lon="5.55876">
        <ele>289.6</ele>
        <time>2015-04-01T07:02:49Z</time>
      </trkpt>
      <trkpt lat="43.32523" lon="5.55876">
        <ele>289.7</ele>
        <time>2015-04-01T07:02:50Z</time>
      </trkpt>
      <trkpt lat="43.32557" lon="5.55887">
        <ele>294.7</ele>
        <time>2015-04-01T07:03:46Z</time>
      </trkpt>
      <trkpt lat="43.32573" lon="5.55897">
        <ele>295.1</ele>
        <time>2015-04-01T07:04:01Z</time>
      </trkpt>
      <trkpt lat="43.32574" lon="5.55898">
        <ele>295.1</ele>
        <time>2015-04-01T07:04:02Z</time>
      </trkpt>
      <trkpt lat="43.32601" lon="5.55925">
        <ele>300.5</ele>
        <time>2015-04-01T07:04:47Z</time>
      </trkpt>
      <trkpt lat="43.32617" lon="5.55936">
        <ele>304.2</ele>
        <time>2015-04-01T07:05:11Z</time>
      </trkpt>
      <trkpt lat="43.32617" lon="5.55937">
        <ele>304.2</ele>
        <time>2015-04-01T07:05:12Z</time>
      </trkpt>
      <trkpt lat="43.32646" lon="5.55962">
        <ele>312.6</ele>
        <time>2015-04-01T07:06:07Z</time>
      </trkpt>
      <trkpt lat="43.32662" lon="5.55972">
        <ele>317.7</ele>
        <time>2015-04-01T07:06:35Z</time>
      </trkpt>
      <trkpt lat="43.32663" lon="5.55972">
        <ele>317.8</ele>
        <time>2015-04-01T07:06:36Z</time>
      </trkpt>
      <trkpt lat="43.32692" lon="5.55996">
        <ele>326.7</ele>
        <time>2015-04-01T07:07:31Z</time>
      </trkpt>
      <trkpt lat="43.32706" lon="5.5601">
        <ele>333.2</ele>
        <time>2015-04-01T07:08:03Z</time>
      </trkpt>
      <trkpt lat="43.32707" lon="5.56011">
        <ele>333.3</ele>
        <time>2015-04-01T07:08:04Z</time>
      </trkpt>
      <trkpt lat="43.32734" lon="5.56039">
        <ele>345</ele>
        <time>2015-04-01T07:09:03Z</time>
      </trkpt>
      <trkpt lat="43.32752" lon="5.56041">
        <ele>353</ele>
        <time>2015-04-01T07:09:56Z</time>
      </trkpt>
      <trkpt lat="43.32752" lon="5.56041">
        <ele>353.2</ele>
        <time>2015-04-01T07:09:57Z</time>
      </trkpt>
      <trkpt lat="43.3277" lon="5.56039">
        <ele>356.6</ele>
        <time>2015-04-01T07:14:10Z</time>
      </trkpt>
      <trkpt lat="43.32801" lon="5.56018">
        <ele>363.7</ele>
        <time>2015-04-01T07:15:02Z</time>
      </trkpt>
      <trkpt lat="43.32817" lon="5.5601">
        <ele>368.2</ele>
        <time>2015-04-01T07:15:26Z</time>
      </trkpt>
      <trkpt lat="43.32818" lon="5.5601">
        <ele>368.3</ele>
        <time>2015-04-01T07:15:27Z</time>
      </trkpt>
      <trkpt lat="43.32852" lon="5.56012">
        <ele>371.7</ele>
        <time>2015-04-01T07:16:17Z</time>
      </trkpt>
      <trkpt lat="43.32869" lon="5.56017">
        <ele>375.6</ele>
        <time>2015-04-01T07:16:44Z</time>
      </trkpt>
      <trkpt lat="43.3287" lon="5.56017">
        <ele>375.7</ele>
        <time>2015-04-01T07:16:45Z</time>
      </trkpt>
      <trkpt lat="43.32903" lon="5.56007">
        <ele>380.6</ele>
        <time>2015-04-01T07:17:35Z</time>
      </trkpt>
      <trkpt lat="43.32921" lon="5.56006">
        <ele>381.1</ele>
        <time>2015-04-01T07:17:57Z</time>
      </trkpt>
      <trkpt lat="43.32922" lon="5.56006">
        <ele>381</ele>
        <time>2015-04-01T07:17:58Z</time>
      </trkpt>
      <trkpt lat="43.32952" lon="5.56028">
        <ele>391.6</ele>
        <time>2015-04-01T07:22:32Z</time>
      </trkpt>
      <trkpt lat="43.32953" lon="5.56028">
        <ele>391.6</ele>
        <time>2015-04-01T07:22:33Z</time>
      </trkpt>
      <trkpt lat="43.32987" lon="5.56026">
        <ele>391</ele>
        <time>2015-04-01T07:23:24Z</time>
      </trkpt>
      <trkpt lat="43.33004" lon="5.56027">
        <ele>392.1</ele>
        <time>2015-04-01T07:23:45Z</time>
      </trkpt>
      <trkpt lat="43.33005" lon="5.56028">
        <ele>391.8</ele>
        <time>2015-04-01T07:23:46Z</time>
      </trkpt>
      <trkpt lat="43.33023" lon="5.56069">
        <ele>404.7</ele>
        <time>2015-04-01T07:24:41Z</time>
      </trkpt>
      <trkpt lat="43.33034" lon="5.56088">
        <ele>413.8</ele>
        <time>2015-04-01T07:25:12Z</time>
      </trkpt>
      <trkpt lat="43.33034" lon="5.56089">
        <ele>414.2</ele>
        <time>2015-04-01T07:25:13Z</time>
      </trkpt>
      <trkpt lat="43.33065" lon="5.56109">
        <ele>422.7</ele>
        <time>2015-04-01T07:26:09Z</time>
      </trkpt>
      <trkpt lat="43.33081" lon="5.56119">
        <ele>427.6</ele>
        <time>2015-04-01T07:26:40Z</time>
      </trkpt>
      <trkpt lat="43.33082" lon="5.56119">
        <ele>427.7</ele>
        <time>2015-04-01T07:26:41Z</time>
      </trkpt>
      <trkpt lat="43.33114" lon="5.56139">
        <ele>434.1</ele>
        <time>2015-04-01T07:27:37Z</time>
      </trkpt>
      <trkpt lat="43.33126" lon="5.56121">
        <ele>446.5</ele>
        <time>2015-04-01T07:28:40Z</time>
      </trkpt>
      <trkpt lat="43.33126" lon="5.5612">
        <ele>446.7</ele>
        <time>2015-04-01T07:28:41Z</time>
      </trkpt>
      <trkpt lat="43.33119" lon="5.56072">
        <ele>458.8</ele>
        <time>2015-04-01T07:30:04Z</time>
      </trkpt>
      <trkpt lat="43.33118" lon="5.56072">
        <ele>459</ele>
        <time>2015-04-01T07:30:05Z</time>
      </trkpt>
      <trkpt lat="43.33134" lon="5.56059">
        <ele>466.1</ele>
        <time>2015-04-01T07:31:11Z</time>
      </trkpt>
      <trkpt lat="43.33154" lon="5.56025">
        <ele>471.3</ele>
        <time>2015-04-01T07:32:17Z</time>
      </trkpt>
      <trkpt lat="43.33154" lon="5.56024">
        <ele>471.3</ele>
        <time>2015-04-01T07:32:18Z</time>
      </trkpt>
      <trkpt lat="43.33164" lon="5.56004">
        <ele>473.2</ele>
        <time>2015-04-01T07:33:42Z</time>
      </trkpt>
      <trkpt lat="43.33178" lon="5.55961">
        <ele>474.5</ele>
        <time>2015-04-01T07:34:39Z</time>
      </trkpt>
      <trkpt lat="43.33183" lon="5.55937">
        <ele>474.7</ele>
        <time>2015-04-01T07:35:06Z</time>
      </trkpt>
      <trkpt lat="43.33183" lon="5.55936">
        <ele>475.1</ele>
        <time>2015-04-01T07:35:07Z</time>
      </trkpt>
      <trkpt lat="43.33186" lon="5.55889">
        <ele>488.3</ele>
        <time>2015-04-01T07:35:52Z</time>
      </trkpt>
      <trkpt lat="43.33183" lon="5.55865">
        <ele>490.1</ele>
        <time>2015-04-01T07:37:41Z</time>
      </trkpt>
      <trkpt lat="43.33184" lon="5.55864">
        <ele>490.2</ele>
        <time>2015-04-01T07:37:42Z</time>
      </trkpt>
      <trkpt lat="43.33184" lon="5.55816">
        <ele>494.3</ele>
        <time>2015-04-01T07:38:33Z</time>
      </trkpt>
      <trkpt lat="43.33187" lon="5.55792">
        <ele>497.3</ele>
        <time>2015-04-01T07:39:08Z</time>
      </trkpt>
      <trkpt lat="43.33187" lon="5.55791">
        <ele>497.2</ele>
        <time>2015-04-01T07:39:09Z</time>
      </trkpt>
      <trkpt lat="43.33195" lon="5.55745">
        <ele>502.3</ele>
        <time>2015-04-01T07:39:52Z</time>
      </trkpt>
      <trkpt lat="43.33199" lon="5.55723">
        <ele>505.2</ele>
        <time>2015-04-01T07:40:15Z</time>
      </trkpt>
      <trkpt lat="43.332" lon="5.55722">
        <ele>506.3</ele>
        <time>2015-04-01T07:40:16Z</time>
      </trkpt>
      <trkpt lat="43.33219" lon="5.55683">
        <ele>520.7</ele>
        <time>2015-04-01T07:41:12Z</time>
      </trkpt>
      <trkpt lat="43.33237" lon="5.55679">
        <ele>527.2</ele>
        <time>2015-04-01T07:41:53Z</time>
      </trkpt>
      <trkpt lat="43.33237" lon="5.55679">
        <ele>527.4</ele>
        <time>2015-04-01T07:41:54Z</time>
      </trkpt>
      <trkpt lat="43.33271" lon="5.55673">
        <ele>536</ele>
        <time>2015-04-01T07:43:07Z</time>
      </trkpt>
      <trkpt lat="43.33272" lon="5.55674">
        <ele>536.2</ele>
        <time>2015-04-01T07:43:08Z</time>
      </trkpt>
      <trkpt lat="43.33298" lon="5.55703">
        <ele>544</ele>
        <time>2015-04-01T07:44:08Z</time>
      </trkpt>
      <trkpt lat="43.33299" lon="5.55703">
        <ele>544</ele>
        <time>2015-04-01T07:44:09Z</time>
      </trkpt>
      <trkpt lat="43.33333" lon="5.55696">
        <ele>557.4</ele>
        <time>2015-04-01T07:45:44Z</time>
      </trkpt>
      <trkpt lat="43.33333" lon="5.55696">
        <ele>557.5</ele>
        <time>2015-04-01T07:45:45Z</time>
      </trkpt>
      <trkpt lat="43.33359" lon="5.55665">
        <ele>572</ele>
        <time>2015-04-01T07:47:59Z</time>
      </trkpt>
      <trkpt lat="43.3336" lon="5.55665">
        <ele>572</ele>
        <time>2015-04-01T07:48:00Z</time>
      </trkpt>
      <trkpt lat="43.33391" lon="5.55641">
        <ele>571.2</ele>
        <time>2015-04-01T07:48:56Z</time>
      </trkpt>
      <trkpt lat="43.33404" lon="5.55627">
        <ele>573.5</ele>
        <time>2015-04-01T07:49:25Z</time>
      </trkpt>
      <trkpt lat="43.33406" lon="5.55627">
        <ele>574</ele>
        <time>2015-04-01T07:49:26Z</time>
      </trkpt>
      <trkpt lat="43.33433" lon="5.55601">
        <ele>577.5</ele>
        <time>2015-04-01T07:50:19Z</time>
      </trkpt>
      <trkpt lat="43.33448" lon="5.55587">
        <ele>578.2</ele>
        <time>2015-04-01T07:50:47Z</time>
      </trkpt>
      <trkpt lat="43.33449" lon="5.55587">
        <ele>578.5</ele>
        <time>2015-04-01T07:50:48Z</time>
      </trkpt>
      <trkpt lat="43.33478" lon="5.55562">
        <ele>586.9</ele>
        <time>2015-04-01T07:51:32Z</time>
      </trkpt>
      <trkpt lat="43.33496" lon="5.5556">
        <ele>590.7</ele>
        <time>2015-04-01T07:52:40Z</time>
      </trkpt>
      <trkpt lat="43.33496" lon="5.55561">
        <ele>590.5</ele>
        <time>2015-04-01T07:52:41Z</time>
      </trkpt>
      <trkpt lat="43.33515" lon="5.55574">
        <ele>578.2</ele>
        <time>2015-04-01T07:54:46Z</time>
      </trkpt>
      <trkpt lat="43.33516" lon="5.55574">
        <ele>578.2</ele>
        <time>2015-04-01T07:54:47Z</time>
      </trkpt>
      <trkpt lat="43.33541" lon="5.55541">
        <ele>564.2</ele>
        <time>2015-04-01T07:56:11Z</time>
      </trkpt>
      <trkpt lat="43.33541" lon="5.55541">
        <ele>564</ele>
        <time>2015-04-01T07:56:12Z</time>
      </trkpt>
      <trkpt lat="43.33574" lon="5.55523">
        <ele>557</ele>
        <time>2015-04-01T07:57:29Z</time>
      </trkpt>
      <trkpt lat="43.33574" lon="5.55523">
        <ele>557</ele>
        <time>2015-04-01T07:57:30Z</time>
      </trkpt>
      <trkpt lat="43.33591" lon="5.55528">
        <ele>558.7</ele>
        <time>2015-04-01T08:10:51Z</time>
      </trkpt>
      <trkpt lat="43.33626" lon="5.55529">
        <ele>546.2</ele>
        <time>2015-04-01T08:12:11Z</time>
      </trkpt>
      <trkpt lat="43.33627" lon="5.55529">
        <ele>546</ele>
        <time>2015-04-01T08:12:12Z</time>
      </trkpt>
      <trkpt lat="43.33661" lon="5.55521">
        <ele>534.4</ele>
        <time>2015-04-01T08:13:21Z</time>
      </trkpt>
      <trkpt lat="43.33661" lon="5.55521">
        <ele>534</ele>
        <time>2015-04-01T08:13:22Z</time>
      </trkpt>
      <trkpt lat="43.33691" lon="5.55502">
        <ele>518</ele>
        <time>2015-04-01T08:14:44Z</time>
      </trkpt>
      <trkpt lat="43.33693" lon="5.55501">
        <ele>518.7</ele>
        <time>2015-04-01T08:14:45Z</time>
      </trkpt>
      <trkpt lat="43.33725" lon="5.55498">
        <ele>513.5</ele>
        <time>2015-04-01T08:16:29Z</time>
      </trkpt>
      <trkpt lat="43.33725" lon="5.55499">
        <ele>513.9</ele>
        <time>2015-04-01T08:16:30Z</time>
      </trkpt>
      <trkpt lat="43.3374" lon="5.55513">
        <ele>519.4</ele>
        <time>2015-04-01T08:18:41Z</time>
      </trkpt>
      <trkpt lat="43.33754" lon="5.55528">
        <ele>518</ele>
        <time>2015-04-01T08:19:49Z</time>
      </trkpt>
      <trkpt lat="43.33768" lon="5.55541">
        <ele>516.9</ele>
        <time>2015-04-01T08:22:19Z</time>
      </trkpt>
      <trkpt lat="43.33785" lon="5.5555">
        <ele>526</ele>
        <time>2015-04-01T08:24:29Z</time>
      </trkpt>
      <trkpt lat="43.33802" lon="5.55591">
        <ele>531</ele>
        <time>2015-04-01T08:25:20Z</time>
      </trkpt>
      <trkpt lat="43.33807" lon="5.55614">
        <ele>530.9</ele>
        <time>2015-04-01T08:25:42Z</time>
      </trkpt>
      <trkpt lat="43.33807" lon="5.55615">
        <ele>530.9</ele>
        <time>2015-04-01T08:25:43Z</time>
      </trkpt>
      <trkpt lat="43.33826" lon="5.55655">
        <ele>527.7</ele>
        <time>2015-04-01T08:26:25Z</time>
      </trkpt>
      <trkpt lat="43.33833" lon="5.55677">
        <ele>532.4</ele>
        <time>2015-04-01T08:27:44Z</time>
      </trkpt>
      <trkpt lat="43.33833" lon="5.55678">
        <ele>532.2</ele>
        <time>2015-04-01T08:27:45Z</time>
      </trkpt>
      <trkpt lat="43.3385" lon="5.55719">
        <ele>532.5</ele>
        <time>2015-04-01T08:28:29Z</time>
      </trkpt>
      <trkpt lat="43.33855" lon="5.55743">
        <ele>530</ele>
        <time>2015-04-01T08:28:52Z</time>
      </trkpt>
      <trkpt lat="43.33855" lon="5.55744">
        <ele>529.7</ele>
        <time>2015-04-01T08:28:53Z</time>
      </trkpt>
      <trkpt lat="43.3387" lon="5.55785">
        <ele>528.7</ele>
        <time>2015-04-01T08:29:32Z</time>
      </trkpt>
      <trkpt lat="43.33875" lon="5.55808">
        <ele>530.7</ele>
        <time>2015-04-01T08:29:49Z</time>
      </trkpt>
      <trkpt lat="43.33884" lon="5.55829">
        <ele>531.7</ele>
        <time>2015-04-01T08:30:10Z</time>
      </trkpt>
      <trkpt lat="43.33884" lon="5.5583">
        <ele>532</ele>
        <time>2015-04-01T08:30:11Z</time>
      </trkpt>
      <trkpt lat="43.33908" lon="5.55852">
        <ele>529.7</ele>
        <time>2015-04-01T08:31:16Z</time>
      </trkpt>
      <trkpt lat="43.33909" lon="5.55851">
        <ele>529.5</ele>
        <time>2015-04-01T08:31:17Z</time>
      </trkpt>
      <trkpt lat="43.33938" lon="5.55858">
        <ele>532.5</ele>
        <time>2015-04-01T08:31:58Z</time>
      </trkpt>
      <trkpt lat="43.33952" lon="5.55874">
        <ele>535.4</ele>
        <time>2015-04-01T08:32:21Z</time>
      </trkpt>
      <trkpt lat="43.33953" lon="5.55874">
        <ele>535.4</ele>
        <time>2015-04-01T08:32:22Z</time>
      </trkpt>
      <trkpt lat="43.33986" lon="5.55882">
        <ele>539.5</ele>
        <time>2015-04-01T08:33:11Z</time>
      </trkpt>
      <trkpt lat="43.34003" lon="5.55875">
        <ele>540.7</ele>
        <time>2015-04-01T08:33:35Z</time>
      </trkpt>
      <trkpt lat="43.34003" lon="5.55874">
        <ele>540.7</ele>
        <time>2015-04-01T08:33:36Z</time>
      </trkpt>
      <trkpt lat="43.34026" lon="5.55838">
        <ele>545.4</ele>
        <time>2015-04-01T08:34:36Z</time>
      </trkpt>
      <trkpt lat="43.34026" lon="5.55837">
        <ele>545.4</ele>
        <time>2015-04-01T08:34:37Z</time>
      </trkpt>
      <trkpt lat="43.3405" lon="5.55803">
        <ele>549.5</ele>
        <time>2015-04-01T08:35:36Z</time>
      </trkpt>
      <trkpt lat="43.34063" lon="5.55786">
        <ele>553</ele>
        <time>2015-04-01T08:36:04Z</time>
      </trkpt>
      <trkpt lat="43.34063" lon="5.55786">
        <ele>553</ele>
        <time>2015-04-01T08:36:05Z</time>
      </trkpt>
      <trkpt lat="43.34096" lon="5.55771">
        <ele>561</ele>
        <time>2015-04-01T08:37:08Z</time>
      </trkpt>
      <trkpt lat="43.34097" lon="5.55771">
        <ele>561.2</ele>
        <time>2015-04-01T08:37:09Z</time>
      </trkpt>
      <trkpt lat="43.3413" lon="5.55757">
        <ele>567.7</ele>
        <time>2015-04-01T08:38:13Z</time>
      </trkpt>
      <trkpt lat="43.34131" lon="5.55757">
        <ele>567.7</ele>
        <time>2015-04-01T08:38:14Z</time>
      </trkpt>
      <trkpt lat="43.34161" lon="5.55736">
        <ele>577.4</ele>
        <time>2015-04-01T08:39:23Z</time>
      </trkpt>
      <trkpt lat="43.34161" lon="5.55736">
        <ele>577.5</ele>
        <time>2015-04-01T08:39:24Z</time>
      </trkpt>
      <trkpt lat="43.34192" lon="5.55714">
        <ele>584.2</ele>
        <time>2015-04-01T08:40:20Z</time>
      </trkpt>
      <trkpt lat="43.3421" lon="5.55714">
        <ele>589.2</ele>
        <time>2015-04-01T08:40:51Z</time>
      </trkpt>
      <trkpt lat="43.3421" lon="5.55714">
        <ele>589.2</ele>
        <time>2015-04-01T08:40:52Z</time>
      </trkpt>
      <trkpt lat="43.34244" lon="5.557">
        <ele>596</ele>
        <time>2015-04-01T08:41:59Z</time>
      </trkpt>
      <trkpt lat="43.34244" lon="5.557">
        <ele>596</ele>
        <time>2015-04-01T08:42:00Z</time>
      </trkpt>
      <trkpt lat="43.34278" lon="5.5569">
        <ele>599.7</ele>
        <time>2015-04-01T08:42:47Z</time>
      </trkpt>
      <trkpt lat="43.34295" lon="5.5568">
        <ele>602.2</ele>
        <time>2015-04-01T08:43:11Z</time>
      </trkpt>
      <trkpt lat="43.34296" lon="5.5568">
        <ele>602.5</ele>
        <time>2015-04-01T08:43:12Z</time>
      </trkpt>
      <trkpt lat="43.34325" lon="5.5566">
        <ele>606</ele>
        <time>2015-04-01T08:43:44Z</time>
      </trkpt>
      <trkpt lat="43.34339" lon="5.55645">
        <ele>608.5</ele>
        <time>2015-04-01T08:44:07Z</time>
      </trkpt>
      <trkpt lat="43.34357" lon="5.55645">
        <ele>613.5</ele>
        <time>2015-04-01T08:45:44Z</time>
      </trkpt>
      <trkpt lat="43.34358" lon="5.55645">
        <ele>613.7</ele>
        <time>2015-04-01T08:45:45Z</time>
      </trkpt>
      <trkpt lat="43.34379" lon="5.55682">
        <ele>616.2</ele>
        <time>2015-04-01T08:46:38Z</time>
      </trkpt>
      <trkpt lat="43.34386" lon="5.55703">
        <ele>615.2</ele>
        <time>2015-04-01T08:46:57Z</time>
      </trkpt>
      <trkpt lat="43.34386" lon="5.55705">
        <ele>615.2</ele>
        <time>2015-04-01T08:46:58Z</time>
      </trkpt>
      <trkpt lat="43.3438" lon="5.55748">
        <ele>618.9</ele>
        <time>2015-04-01T08:48:35Z</time>
      </trkpt>
      <trkpt lat="43.3438" lon="5.55749">
        <ele>618.7</ele>
        <time>2015-04-01T08:48:36Z</time>
      </trkpt>
      <trkpt lat="43.34357" lon="5.55785">
        <ele>610.9</ele>
        <time>2015-04-01T08:49:27Z</time>
      </trkpt>
      <trkpt lat="43.34347" lon="5.55806">
        <ele>608.4</ele>
        <time>2015-04-01T08:49:49Z</time>
      </trkpt>
      <trkpt lat="43.34347" lon="5.55807">
        <ele>608.2</ele>
        <time>2015-04-01T08:49:50Z</time>
      </trkpt>
      <trkpt lat="43.34338" lon="5.55852">
        <ele>598.7</ele>
        <time>2015-04-01T08:50:46Z</time>
      </trkpt>
      <trkpt lat="43.34332" lon="5.55875">
        <ele>595.2</ele>
        <time>2015-04-01T08:51:09Z</time>
      </trkpt>
      <trkpt lat="43.34332" lon="5.55877">
        <ele>595</ele>
        <time>2015-04-01T08:51:10Z</time>
      </trkpt>
      <trkpt lat="43.34332" lon="5.55922">
        <ele>592</ele>
        <time>2015-04-01T08:51:48Z</time>
      </trkpt>
      <trkpt lat="43.34335" lon="5.55947">
        <ele>588.9</ele>
        <time>2015-04-01T08:52:11Z</time>
      </trkpt>
      <trkpt lat="43.34335" lon="5.55948">
        <ele>588.7</ele>
        <time>2015-04-01T08:52:12Z</time>
      </trkpt>
      <trkpt lat="43.34338" lon="5.55995">
        <ele>585.2</ele>
        <time>2015-04-01T08:52:51Z</time>
      </trkpt>
      <trkpt lat="43.34343" lon="5.56018">
        <ele>583.7</ele>
        <time>2015-04-01T08:53:08Z</time>
      </trkpt>
      <trkpt lat="43.34345" lon="5.56043">
        <ele>582.7</ele>
        <time>2015-04-01T08:53:25Z</time>
      </trkpt>
      <trkpt lat="43.34345" lon="5.56044">
        <ele>582.7</ele>
        <time>2015-04-01T08:53:26Z</time>
      </trkpt>
      <trkpt lat="43.3436" lon="5.56086">
        <ele>581.2</ele>
        <time>2015-04-01T08:54:00Z</time>
      </trkpt>
      <trkpt lat="43.34373" lon="5.56102">
        <ele>576.5</ele>
        <time>2015-04-01T08:54:21Z</time>
      </trkpt>
      <trkpt lat="43.34387" lon="5.56117">
        <ele>573.2</ele>
        <time>2015-04-01T08:54:40Z</time>
      </trkpt>
      <trkpt lat="43.34388" lon="5.56118">
        <ele>573</ele>
        <time>2015-04-01T08:54:41Z</time>
      </trkpt>
      <trkpt lat="43.34414" lon="5.56147">
        <ele>571.2</ele>
        <time>2015-04-01T08:55:13Z</time>
      </trkpt>
      <trkpt lat="43.34428" lon="5.56162">
        <ele>571</ele>
        <time>2015-04-01T08:55:29Z</time>
      </trkpt>
      <trkpt lat="43.34438" lon="5.56181">
        <ele>570.5</ele>
        <time>2015-04-01T08:55:45Z</time>
      </trkpt>
      <trkpt lat="43.34439" lon="5.56182">
        <ele>570.5</ele>
        <time>2015-04-01T08:55:46Z</time>
      </trkpt>
      <trkpt lat="43.34452" lon="5.56225">
        <ele>570.5</ele>
        <time>2015-04-01T08:56:20Z</time>
      </trkpt>
      <trkpt lat="43.34451" lon="5.56249">
        <ele>571.7</ele>
        <time>2015-04-01T08:59:14Z</time>
      </trkpt>
      <trkpt lat="43.34451" lon="5.5625">
        <ele>571.7</ele>
        <time>2015-04-01T08:59:15Z</time>
      </trkpt>
      <trkpt lat="43.34463" lon="5.56295">
        <ele>570.9</ele>
        <time>2015-04-01T08:59:47Z</time>
      </trkpt>
      <trkpt lat="43.34472" lon="5.56315">
        <ele>570.7</ele>
        <time>2015-04-01T09:00:00Z</time>
      </trkpt>
      <trkpt lat="43.34481" lon="5.56335">
        <ele>570.2</ele>
        <time>2015-04-01T09:00:14Z</time>
      </trkpt>
      <trkpt lat="43.34494" lon="5.56352">
        <ele>569.5</ele>
        <time>2015-04-01T09:00:28Z</time>
      </trkpt>
      <trkpt lat="43.34495" lon="5.56353">
        <ele>569.5</ele>
        <time>2015-04-01T09:00:29Z</time>
      </trkpt>
      <trkpt lat="43.34526" lon="5.56368">
        <ele>568.7</ele>
        <time>2015-04-01T09:00:57Z</time>
      </trkpt>
      <trkpt lat="43.34543" lon="5.56363">
        <ele>568.9</ele>
        <time>2015-04-01T09:01:11Z</time>
      </trkpt>
      <trkpt lat="43.34552" lon="5.56343">
        <ele>571.2</ele>
        <time>2015-04-01T09:01:25Z</time>
      </trkpt>
      <trkpt lat="43.34563" lon="5.56323">
        <ele>572.2</ele>
        <time>2015-04-01T09:01:41Z</time>
      </trkpt>
      <trkpt lat="43.34564" lon="5.56322">
        <ele>572.4</ele>
        <time>2015-04-01T09:01:42Z</time>
      </trkpt>
      <trkpt lat="43.34585" lon="5.56286">
        <ele>574.5</ele>
        <time>2015-04-01T09:02:12Z</time>
      </trkpt>
      <trkpt lat="43.34595" lon="5.56265">
        <ele>575.9</ele>
        <time>2015-04-01T09:02:29Z</time>
      </trkpt>
      <trkpt lat="43.34605" lon="5.56245">
        <ele>576.9</ele>
        <time>2015-04-01T09:02:50Z</time>
      </trkpt>
      <trkpt lat="43.34605" lon="5.56245">
        <ele>577</ele>
        <time>2015-04-01T09:02:51Z</time>
      </trkpt>
      <trkpt lat="43.34635" lon="5.56219">
        <ele>582.2</ele>
        <time>2015-04-01T09:03:50Z</time>
      </trkpt>
      <trkpt lat="43.34648" lon="5.56203">
        <ele>582.5</ele>
        <time>2015-04-01T09:04:19Z</time>
      </trkpt>
      <trkpt lat="43.34648" lon="5.56203">
        <ele>582.7</ele>
        <time>2015-04-01T09:04:20Z</time>
      </trkpt>
      <trkpt lat="43.34679" lon="5.56183">
        <ele>588.7</ele>
        <time>2015-04-01T09:05:05Z</time>
      </trkpt>
      <trkpt lat="43.34695" lon="5.56171">
        <ele>590.2</ele>
        <time>2015-04-01T09:05:23Z</time>
      </trkpt>
      <trkpt lat="43.34696" lon="5.5617">
        <ele>590.2</ele>
        <time>2015-04-01T09:05:24Z</time>
      </trkpt>
      <trkpt lat="43.34723" lon="5.56144">
        <ele>594</ele>
        <time>2015-04-01T09:05:55Z</time>
      </trkpt>
      <trkpt lat="43.34736" lon="5.56128">
        <ele>592.9</ele>
        <time>2015-04-01T09:06:09Z</time>
      </trkpt>
      <trkpt lat="43.34749" lon="5.56113">
        <ele>592.2</ele>
        <time>2015-04-01T09:06:23Z</time>
      </trkpt>
      <trkpt lat="43.34763" lon="5.56098">
        <ele>593.7</ele>
        <time>2015-04-01T09:06:38Z</time>
      </trkpt>
      <trkpt lat="43.34764" lon="5.56097">
        <ele>593.9</ele>
        <time>2015-04-01T09:06:39Z</time>
      </trkpt>
      <trkpt lat="43.3479" lon="5.56066">
        <ele>594.4</ele>
        <time>2015-04-01T09:07:10Z</time>
      </trkpt>
      <trkpt lat="43.34806" lon="5.56057">
        <ele>594.9</ele>
        <time>2015-04-01T09:07:26Z</time>
      </trkpt>
      <trkpt lat="43.34822" lon="5.56046">
        <ele>594.7</ele>
        <time>2015-04-01T09:07:43Z</time>
      </trkpt>
      <trkpt lat="43.34823" lon="5.56045">
        <ele>594.7</ele>
        <time>2015-04-01T09:07:44Z</time>
      </trkpt>
      <trkpt lat="43.34839" lon="5.56005">
        <ele>590.4</ele>
        <time>2015-04-01T09:08:16Z</time>
      </trkpt>
      <trkpt lat="43.34843" lon="5.55981">
        <ele>587.7</ele>
        <time>2015-04-01T09:08:32Z</time>
      </trkpt>
      <trkpt lat="43.34848" lon="5.55957">
        <ele>585.2</ele>
        <time>2015-04-01T09:08:50Z</time>
      </trkpt>
      <trkpt lat="43.34848" lon="5.55956">
        <ele>585.2</ele>
        <time>2015-04-01T09:08:51Z</time>
      </trkpt>
      <trkpt lat="43.34873" lon="5.55925">
        <ele>582.5</ele>
        <time>2015-04-01T09:09:29Z</time>
      </trkpt>
      <trkpt lat="43.34886" lon="5.5591">
        <ele>581.2</ele>
        <time>2015-04-01T09:09:45Z</time>
      </trkpt>
      <trkpt lat="43.34898" lon="5.55893">
        <ele>581</ele>
        <time>2015-04-01T09:10:04Z</time>
      </trkpt>
      <trkpt lat="43.34899" lon="5.55893">
        <ele>581</ele>
        <time>2015-04-01T09:10:05Z</time>
      </trkpt>
      <trkpt lat="43.34922" lon="5.55858">
        <ele>581.5</ele>
        <time>2015-04-01T09:10:36Z</time>
      </trkpt>
      <trkpt lat="43.34931" lon="5.55838">
        <ele>580.2</ele>
        <time>2015-04-01T09:10:54Z</time>
      </trkpt>
      <trkpt lat="43.34928" lon="5.55814">
        <ele>579</ele>
        <time>2015-04-01T09:11:13Z</time>
      </trkpt>
      <trkpt lat="43.34928" lon="5.55813">
        <ele>579.2</ele>
        <time>2015-04-01T09:11:14Z</time>
      </trkpt>
      <trkpt lat="43.34927" lon="5.55766">
        <ele>576.5</ele>
        <time>2015-04-01T09:11:56Z</time>
      </trkpt>
      <trkpt lat="43.34921" lon="5.55743">
        <ele>572</ele>
        <time>2015-04-01T09:12:20Z</time>
      </trkpt>
      <trkpt lat="43.3492" lon="5.55742">
        <ele>571.9</ele>
        <time>2015-04-01T09:12:21Z</time>
      </trkpt>
      <trkpt lat="43.34909" lon="5.55697">
        <ele>564.2</ele>
        <time>2015-04-01T09:13:11Z</time>
      </trkpt>
      <trkpt lat="43.34899" lon="5.55677">
        <ele>561.4</ele>
        <time>2015-04-01T09:13:30Z</time>
      </trkpt>
      <trkpt lat="43.34899" lon="5.55676">
        <ele>561.2</ele>
        <time>2015-04-01T09:13:31Z</time>
      </trkpt>
      <trkpt lat="43.34881" lon="5.55637">
        <ele>555</ele>
        <time>2015-04-01T09:14:08Z</time>
      </trkpt>
      <trkpt lat="43.34871" lon="5.55616">
        <ele>552.7</ele>
        <time>2015-04-01T09:14:37Z</time>
      </trkpt>
      <trkpt lat="43.34871" lon="5.55614">
        <ele>554.2</ele>
        <time>2015-04-01T09:14:38Z</time>
      </trkpt>
      <trkpt lat="43.34889" lon="5.55609">
        <ele>547.2</ele>
        <time>2015-04-01T09:15:51Z</time>
      </trkpt>
      <trkpt lat="43.34922" lon="5.55613">
        <ele>540.5</ele>
        <time>2015-04-01T09:16:33Z</time>
      </trkpt>
      <trkpt lat="43.3494" lon="5.55614">
        <ele>541.9</ele>
        <time>2015-04-01T09:16:49Z</time>
      </trkpt>
      <trkpt lat="43.34957" lon="5.55611">
        <ele>547.5</ele>
        <time>2015-04-01T09:17:03Z</time>
      </trkpt>
      <trkpt lat="43.34959" lon="5.55611">
        <ele>548</ele>
        <time>2015-04-01T09:17:04Z</time>
      </trkpt>
      <trkpt lat="43.34986" lon="5.55585">
        <ele>549</ele>
        <time>2015-04-01T09:17:37Z</time>
      </trkpt>
      <trkpt lat="43.34993" lon="5.55562">
        <ele>546</ele>
        <time>2015-04-01T09:17:58Z</time>
      </trkpt>
      <trkpt lat="43.34999" lon="5.55539">
        <ele>540.9</ele>
        <time>2015-04-01T09:18:20Z</time>
      </trkpt>
      <trkpt lat="43.34999" lon="5.55538">
        <ele>540.5</ele>
        <time>2015-04-01T09:18:21Z</time>
      </trkpt>
      <trkpt lat="43.35008" lon="5.55496">
        <ele>540.9</ele>
        <time>2015-04-01T09:19:37Z</time>
      </trkpt>
      <trkpt lat="43.35009" lon="5.55495">
        <ele>541</ele>
        <time>2015-04-01T09:19:38Z</time>
      </trkpt>
      <trkpt lat="43.3504" lon="5.55512">
        <ele>539</ele>
        <time>2015-04-01T09:20:13Z</time>
      </trkpt>
      <trkpt lat="43.3505" lon="5.55531">
        <ele>541.4</ele>
        <time>2015-04-01T09:20:28Z</time>
      </trkpt>
      <trkpt lat="43.35063" lon="5.55547">
        <ele>540.5</ele>
        <time>2015-04-01T09:20:46Z</time>
      </trkpt>
      <trkpt lat="43.35064" lon="5.55548">
        <ele>540.5</ele>
        <time>2015-04-01T09:20:47Z</time>
      </trkpt>
      <trkpt lat="43.3509" lon="5.5558">
        <ele>543</ele>
        <time>2015-04-01T09:21:21Z</time>
      </trkpt>
      <trkpt lat="43.35107" lon="5.55584">
        <ele>543</ele>
        <time>2015-04-01T09:21:39Z</time>
      </trkpt>
      <trkpt lat="43.35123" lon="5.55596">
        <ele>544.2</ele>
        <time>2015-04-01T09:21:57Z</time>
      </trkpt>
      <trkpt lat="43.35123" lon="5.55597">
        <ele>544.2</ele>
        <time>2015-04-01T09:21:58Z</time>
      </trkpt>
      <trkpt lat="43.35154" lon="5.55612">
        <ele>546</ele>
        <time>2015-04-01T09:22:34Z</time>
      </trkpt>
      <trkpt lat="43.3517" lon="5.556">
        <ele>549</ele>
        <time>2015-04-01T09:22:51Z</time>
      </trkpt>
      <trkpt lat="43.35176" lon="5.55578">
        <ele>548.5</ele>
        <time>2015-04-01T09:23:08Z</time>
      </trkpt>
      <trkpt lat="43.35176" lon="5.55577">
        <ele>548.4</ele>
        <time>2015-04-01T09:23:09Z</time>
      </trkpt>
      <trkpt lat="43.35193" lon="5.55537">
        <ele>545.5</ele>
        <time>2015-04-01T09:23:41Z</time>
      </trkpt>
      <trkpt lat="43.35204" lon="5.55518">
        <ele>546.2</ele>
        <time>2015-04-01T09:23:57Z</time>
      </trkpt>
      <trkpt lat="43.35209" lon="5.55496">
        <ele>543.7</ele>
        <time>2015-04-01T09:24:14Z</time>
      </trkpt>
      <trkpt lat="43.3521" lon="5.55495">
        <ele>543.4</ele>
        <time>2015-04-01T09:24:15Z</time>
      </trkpt>
      <trkpt lat="43.35226" lon="5.55455">
        <ele>541.9</ele>
        <time>2015-04-01T09:24:50Z</time>
      </trkpt>
      <trkpt lat="43.35238" lon="5.55438">
        <ele>541.7</ele>
        <time>2015-04-01T09:25:12Z</time>
      </trkpt>
      <trkpt lat="43.35251" lon="5.55454">
        <ele>544</ele>
        <time>2015-04-01T09:25:28Z</time>
      </trkpt>
      <trkpt lat="43.35252" lon="5.55455">
        <ele>544</ele>
        <time>2015-04-01T09:25:29Z</time>
      </trkpt>
      <trkpt lat="43.35263" lon="5.55499">
        <ele>549.7</ele>
        <time>2015-04-01T09:26:12Z</time>
      </trkpt>
      <trkpt lat="43.35264" lon="5.55524">
        <ele>549.7</ele>
        <time>2015-04-01T09:26:37Z</time>
      </trkpt>
      <trkpt lat="43.35264" lon="5.55525">
        <ele>549.9</ele>
        <time>2015-04-01T09:26:38Z</time>
      </trkpt>
      <trkpt lat="43.35285" lon="5.55557">
        <ele>551.9</ele>
        <time>2015-04-01T09:27:21Z</time>
      </trkpt>
      <trkpt lat="43.35301" lon="5.55566">
        <ele>552.5</ele>
        <time>2015-04-01T09:27:38Z</time>
      </trkpt>
      <trkpt lat="43.35302" lon="5.55567">
        <ele>552.7</ele>
        <time>2015-04-01T09:27:39Z</time>
      </trkpt>
      <trkpt lat="43.35333" lon="5.55564">
        <ele>560</ele>
        <time>2015-04-01T09:28:15Z</time>
      </trkpt>
      <trkpt lat="43.35351" lon="5.55563">
        <ele>560.2</ele>
        <time>2015-04-01T09:28:33Z</time>
      </trkpt>
      <trkpt lat="43.35365" lon="5.55577">
        <ele>560.2</ele>
        <time>2015-04-01T09:28:51Z</time>
      </trkpt>
      <trkpt lat="43.35365" lon="5.55578">
        <ele>560</ele>
        <time>2015-04-01T09:28:52Z</time>
      </trkpt>
      <trkpt lat="43.35377" lon="5.55622">
        <ele>557.7</ele>
        <time>2015-04-01T09:30:10Z</time>
      </trkpt>
      <trkpt lat="43.35377" lon="5.55622">
        <ele>558.2</ele>
        <time>2015-04-01T09:30:11Z</time>
      </trkpt>
      <trkpt lat="43.35381" lon="5.5567">
        <ele>555.2</ele>
        <time>2015-04-01T09:30:53Z</time>
      </trkpt>
      <trkpt lat="43.35376" lon="5.55693">
        <ele>554.9</ele>
        <time>2015-04-01T09:31:15Z</time>
      </trkpt>
      <trkpt lat="43.35376" lon="5.55694">
        <ele>554.7</ele>
        <time>2015-04-01T09:31:16Z</time>
      </trkpt>
      <trkpt lat="43.35389" lon="5.55737">
        <ele>556.2</ele>
        <time>2015-04-01T09:31:48Z</time>
      </trkpt>
      <trkpt lat="43.35397" lon="5.55759">
        <ele>557.4</ele>
        <time>2015-04-01T09:32:06Z</time>
      </trkpt>
      <trkpt lat="43.3541" lon="5.55775">
        <ele>557.5</ele>
        <time>2015-04-01T09:32:26Z</time>
      </trkpt>
      <trkpt lat="43.35411" lon="5.55776">
        <ele>557.9</ele>
        <time>2015-04-01T09:32:27Z</time>
      </trkpt>
      <trkpt lat="43.3542" lon="5.55821">
        <ele>565.7</ele>
        <time>2015-04-01T09:33:10Z</time>
      </trkpt>
      <trkpt lat="43.35418" lon="5.55846">
        <ele>565.9</ele>
        <time>2015-04-01T09:33:54Z</time>
      </trkpt>
      <trkpt lat="43.35418" lon="5.55847">
        <ele>566.2</ele>
        <time>2015-04-01T09:33:55Z</time>
      </trkpt>
      <trkpt lat="43.35407" lon="5.55891">
        <ele>568.4</ele>
        <time>2015-04-01T09:34:38Z</time>
      </trkpt>
      <trkpt lat="43.35418" lon="5.5591">
        <ele>580.5</ele>
        <time>2015-04-01T09:35:44Z</time>
      </trkpt>
      <trkpt lat="43.35419" lon="5.55911">
        <ele>580.5</ele>
        <time>2015-04-01T09:35:45Z</time>
      </trkpt>
      <trkpt lat="43.35446" lon="5.55939">
        <ele>581</ele>
        <time>2015-04-01T09:36:42Z</time>
      </trkpt>
      <trkpt lat="43.3546" lon="5.55925">
        <ele>585.5</ele>
        <time>2015-04-01T09:37:39Z</time>
      </trkpt>
      <trkpt lat="43.35461" lon="5.55924">
        <ele>585.5</ele>
        <time>2015-04-01T09:37:40Z</time>
      </trkpt>
      <trkpt lat="43.35484" lon="5.55889">
        <ele>589.2</ele>
        <time>2015-04-01T09:38:35Z</time>
      </trkpt>
      <trkpt lat="43.35495" lon="5.5587">
        <ele>592.2</ele>
        <time>2015-04-01T09:38:58Z</time>
      </trkpt>
      <trkpt lat="43.35495" lon="5.55869">
        <ele>592.4</ele>
        <time>2015-04-01T09:38:59Z</time>
      </trkpt>
      <trkpt lat="43.35515" lon="5.5583">
        <ele>594.5</ele>
        <time>2015-04-01T09:39:34Z</time>
      </trkpt>
      <trkpt lat="43.35518" lon="5.55807">
        <ele>595</ele>
        <time>2015-04-01T09:39:53Z</time>
      </trkpt>
      <trkpt lat="43.35518" lon="5.55784">
        <ele>596.4</ele>
        <time>2015-04-01T09:40:11Z</time>
      </trkpt>
      <trkpt lat="43.35519" lon="5.55782">
        <ele>596.5</ele>
        <time>2015-04-01T09:40:12Z</time>
      </trkpt>
      <trkpt lat="43.35534" lon="5.55741">
        <ele>600.2</ele>
        <time>2015-04-01T09:40:56Z</time>
      </trkpt>
      <trkpt lat="43.35528" lon="5.55718">
        <ele>600.2</ele>
        <time>2015-04-01T09:41:21Z</time>
      </trkpt>
      <trkpt lat="43.35528" lon="5.55717">
        <ele>600.4</ele>
        <time>2015-04-01T09:41:22Z</time>
      </trkpt>
      <trkpt lat="43.35547" lon="5.5569">
        <ele>611.7</ele>
        <time>2015-04-01T09:42:02Z</time>
      </trkpt>
      <trkpt lat="43.35562" lon="5.55677">
        <ele>616.4</ele>
        <time>2015-04-01T09:42:20Z</time>
      </trkpt>
      <trkpt lat="43.35576" lon="5.55661">
        <ele>615.5</ele>
        <time>2015-04-01T09:42:37Z</time>
      </trkpt>
      <trkpt lat="43.35576" lon="5.5566">
        <ele>615.7</ele>
        <time>2015-04-01T09:42:38Z</time>
      </trkpt>
      <trkpt lat="43.35596" lon="5.55621">
        <ele>618</ele>
        <time>2015-04-01T09:43:16Z</time>
      </trkpt>
      <trkpt lat="43.35599" lon="5.55597">
        <ele>620.5</ele>
        <time>2015-04-01T09:43:34Z</time>
      </trkpt>
      <trkpt lat="43.35596" lon="5.55574">
        <ele>622.5</ele>
        <time>2015-04-01T09:43:50Z</time>
      </trkpt>
      <trkpt lat="43.35596" lon="5.55572">
        <ele>622.7</ele>
        <time>2015-04-01T09:43:51Z</time>
      </trkpt>
      <trkpt lat="43.35588" lon="5.55527">
        <ele>622</ele>
        <time>2015-04-01T09:44:23Z</time>
      </trkpt>
      <trkpt lat="43.35582" lon="5.55504">
        <ele>622.2</ele>
        <time>2015-04-01T09:44:39Z</time>
      </trkpt>
      <trkpt lat="43.35577" lon="5.55481">
        <ele>621.7</ele>
        <time>2015-04-01T09:44:55Z</time>
      </trkpt>
      <trkpt lat="43.35577" lon="5.55479">
        <ele>621.7</ele>
        <time>2015-04-01T09:44:56Z</time>
      </trkpt>
      <trkpt lat="43.3556" lon="5.55439">
        <ele>619.5</ele>
        <time>2015-04-01T09:45:26Z</time>
      </trkpt>
      <trkpt lat="43.35547" lon="5.55424">
        <ele>619.5</ele>
        <time>2015-04-01T09:45:40Z</time>
      </trkpt>
      <trkpt lat="43.35532" lon="5.55411">
        <ele>618.7</ele>
        <time>2015-04-01T09:45:55Z</time>
      </trkpt>
      <trkpt lat="43.35519" lon="5.55394">
        <ele>618</ele>
        <time>2015-04-01T09:46:10Z</time>
      </trkpt>
      <trkpt lat="43.35519" lon="5.55393">
        <ele>618</ele>
        <time>2015-04-01T09:46:11Z</time>
      </trkpt>
      <trkpt lat="43.35508" lon="5.55349">
        <ele>616.7</ele>
        <time>2015-04-01T09:46:41Z</time>
      </trkpt>
      <trkpt lat="43.355" lon="5.55326">
        <ele>616.5</ele>
        <time>2015-04-01T09:46:58Z</time>
      </trkpt>
      <trkpt lat="43.35489" lon="5.55308">
        <ele>618.2</ele>
        <time>2015-04-01T09:47:15Z</time>
      </trkpt>
      <trkpt lat="43.35489" lon="5.55307">
        <ele>618.2</ele>
        <time>2015-04-01T09:47:16Z</time>
      </trkpt>
      <trkpt lat="43.35462" lon="5.55276">
        <ele>618.5</ele>
        <time>2015-04-01T09:47:54Z</time>
      </trkpt>
      <trkpt lat="43.35447" lon="5.55289">
        <ele>615.9</ele>
        <time>2015-04-01T09:48:45Z</time>
      </trkpt>
      <trkpt lat="43.35447" lon="5.55289">
        <ele>615.7</ele>
        <time>2015-04-01T09:48:46Z</time>
      </trkpt>
    </trkseg>
  </trk>
  <trk>
    <name><![CDATA[Plan de l\'Aigle_2]]></name>
    <trkseg>
      <trkpt lat="43.35447" lon="5.553">
        <ele>620.9</ele>
        <time>2015-04-01T11:00:11Z</time>
      </trkpt>
      <trkpt lat="43.35447" lon="5.553">
        <ele>621.1</ele>
        <time>2015-04-01T11:00:12Z</time>
      </trkpt>
      <trkpt lat="43.35454" lon="5.55277">
        <ele>621.7</ele>
        <time>2015-04-01T11:03:44Z</time>
      </trkpt>
      <trkpt lat="43.3542" lon="5.5527">
        <ele>629.2</ele>
        <time>2015-04-01T11:04:47Z</time>
      </trkpt>
      <trkpt lat="43.35419" lon="5.5527">
        <ele>629.2</ele>
        <time>2015-04-01T11:04:48Z</time>
      </trkpt>
      <trkpt lat="43.35389" lon="5.5525">
        <ele>630.2</ele>
        <time>2015-04-01T11:05:26Z</time>
      </trkpt>
      <trkpt lat="43.35375" lon="5.55234">
        <ele>631.4</ele>
        <time>2015-04-01T11:05:43Z</time>
      </trkpt>
      <trkpt lat="43.35362" lon="5.55219">
        <ele>632.9</ele>
        <time>2015-04-01T11:05:57Z</time>
      </trkpt>
      <trkpt lat="43.35361" lon="5.55218">
        <ele>633</ele>
        <time>2015-04-01T11:05:58Z</time>
      </trkpt>
      <trkpt lat="43.35334" lon="5.5519">
        <ele>634.2</ele>
        <time>2015-04-01T11:06:29Z</time>
      </trkpt>
      <trkpt lat="43.35324" lon="5.5517">
        <ele>634.2</ele>
        <time>2015-04-01T11:06:46Z</time>
      </trkpt>
      <trkpt lat="43.35317" lon="5.55148">
        <ele>635.4</ele>
        <time>2015-04-01T11:07:02Z</time>
      </trkpt>
      <trkpt lat="43.35317" lon="5.55146">
        <ele>635.5</ele>
        <time>2015-04-01T11:07:03Z</time>
      </trkpt>
      <trkpt lat="43.35317" lon="5.551">
        <ele>636.7</ele>
        <time>2015-04-01T11:07:32Z</time>
      </trkpt>
      <trkpt lat="43.3532" lon="5.55076">
        <ele>637.7</ele>
        <time>2015-04-01T11:07:48Z</time>
      </trkpt>
      <trkpt lat="43.35326" lon="5.55053">
        <ele>639.5</ele>
        <time>2015-04-01T11:08:04Z</time>
      </trkpt>
      <trkpt lat="43.35325" lon="5.55052">
        <ele>639.7</ele>
        <time>2015-04-01T11:08:05Z</time>
      </trkpt>
      <trkpt lat="43.35327" lon="5.55006">
        <ele>640</ele>
        <time>2015-04-01T11:08:34Z</time>
      </trkpt>
      <trkpt lat="43.35326" lon="5.54983">
        <ele>640.5</ele>
        <time>2015-04-01T11:08:50Z</time>
      </trkpt>
      <trkpt lat="43.35322" lon="5.54959">
        <ele>642</ele>
        <time>2015-04-01T11:09:05Z</time>
      </trkpt>
      <trkpt lat="43.35322" lon="5.54958">
        <ele>642.2</ele>
        <time>2015-04-01T11:09:06Z</time>
      </trkpt>
      <trkpt lat="43.35319" lon="5.54911">
        <ele>644.4</ele>
        <time>2015-04-01T11:09:39Z</time>
      </trkpt>
      <trkpt lat="43.35319" lon="5.54887">
        <ele>646.7</ele>
        <time>2015-04-01T11:09:57Z</time>
      </trkpt>
      <trkpt lat="43.35318" lon="5.54863">
        <ele>648.2</ele>
        <time>2015-04-01T11:10:14Z</time>
      </trkpt>
      <trkpt lat="43.35318" lon="5.54861">
        <ele>648.2</ele>
        <time>2015-04-01T11:10:15Z</time>
      </trkpt>
      <trkpt lat="43.35306" lon="5.54819">
        <ele>651.2</ele>
        <time>2015-04-01T11:10:46Z</time>
      </trkpt>
      <trkpt lat="43.35298" lon="5.54798">
        <ele>652.5</ele>
        <time>2015-04-01T11:11:02Z</time>
      </trkpt>
      <trkpt lat="43.3529" lon="5.54777">
        <ele>654.5</ele>
        <time>2015-04-01T11:11:17Z</time>
      </trkpt>
      <trkpt lat="43.35289" lon="5.54776">
        <ele>654.7</ele>
        <time>2015-04-01T11:11:18Z</time>
      </trkpt>
      <trkpt lat="43.35278" lon="5.54732">
        <ele>653.5</ele>
        <time>2015-04-01T11:11:53Z</time>
      </trkpt>
      <trkpt lat="43.3527" lon="5.54712">
        <ele>653.9</ele>
        <time>2015-04-01T11:12:08Z</time>
      </trkpt>
      <trkpt lat="43.3526" lon="5.54692">
        <ele>653.7</ele>
        <time>2015-04-01T11:12:23Z</time>
      </trkpt>
      <trkpt lat="43.3526" lon="5.54691">
        <ele>653.7</ele>
        <time>2015-04-01T11:12:24Z</time>
      </trkpt>
      <trkpt lat="43.35241" lon="5.54652">
        <ele>654.2</ele>
        <time>2015-04-01T11:13:09Z</time>
      </trkpt>
      <trkpt lat="43.35232" lon="5.54631">
        <ele>653.9</ele>
        <time>2015-04-01T11:13:23Z</time>
      </trkpt>
      <trkpt lat="43.35224" lon="5.54611">
        <ele>656</ele>
        <time>2015-04-01T11:13:37Z</time>
      </trkpt>
      <trkpt lat="43.35223" lon="5.5461">
        <ele>656</ele>
        <time>2015-04-01T11:13:38Z</time>
      </trkpt>
      <trkpt lat="43.35208" lon="5.54568">
        <ele>656.7</ele>
        <time>2015-04-01T11:14:06Z</time>
      </trkpt>
      <trkpt lat="43.352" lon="5.54547">
        <ele>656</ele>
        <time>2015-04-01T11:14:22Z</time>
      </trkpt>
      <trkpt lat="43.35182" lon="5.54543">
        <ele>655</ele>
        <time>2015-04-01T11:14:40Z</time>
      </trkpt>
      <trkpt lat="43.35182" lon="5.54543">
        <ele>654.9</ele>
        <time>2015-04-01T11:14:41Z</time>
      </trkpt>
      <trkpt lat="43.3515" lon="5.54562">
        <ele>651.7</ele>
        <time>2015-04-01T11:15:15Z</time>
      </trkpt>
      <trkpt lat="43.35134" lon="5.54573">
        <ele>651.5</ele>
        <time>2015-04-01T11:15:30Z</time>
      </trkpt>
      <trkpt lat="43.35118" lon="5.54583">
        <ele>651.9</ele>
        <time>2015-04-01T11:15:45Z</time>
      </trkpt>
      <trkpt lat="43.35117" lon="5.54584">
        <ele>652</ele>
        <time>2015-04-01T11:15:46Z</time>
      </trkpt>
      <trkpt lat="43.35085" lon="5.54599">
        <ele>654.2</ele>
        <time>2015-04-01T11:16:14Z</time>
      </trkpt>
      <trkpt lat="43.35068" lon="5.54604">
        <ele>656.5</ele>
        <time>2015-04-01T11:16:30Z</time>
      </trkpt>
      <trkpt lat="43.35051" lon="5.54602">
        <ele>657.7</ele>
        <time>2015-04-01T11:16:46Z</time>
      </trkpt>
      <trkpt lat="43.3505" lon="5.54601">
        <ele>657.5</ele>
        <time>2015-04-01T11:16:47Z</time>
      </trkpt>
      <trkpt lat="43.3502" lon="5.54579">
        <ele>656.7</ele>
        <time>2015-04-01T11:17:14Z</time>
      </trkpt>
      <trkpt lat="43.35003" lon="5.54584">
        <ele>658</ele>
        <time>2015-04-01T11:17:32Z</time>
      </trkpt>
      <trkpt lat="43.34996" lon="5.54606">
        <ele>658.9</ele>
        <time>2015-04-01T11:17:49Z</time>
      </trkpt>
      <trkpt lat="43.34996" lon="5.54607">
        <ele>658.7</ele>
        <time>2015-04-01T11:17:50Z</time>
      </trkpt>
      <trkpt lat="43.34971" lon="5.54638">
        <ele>656</ele>
        <time>2015-04-01T11:18:21Z</time>
      </trkpt>
      <trkpt lat="43.34957" lon="5.54651">
        <ele>655.5</ele>
        <time>2015-04-01T11:18:36Z</time>
      </trkpt>
      <trkpt lat="43.34941" lon="5.5466">
        <ele>657.4</ele>
        <time>2015-04-01T11:18:50Z</time>
      </trkpt>
      <trkpt lat="43.3494" lon="5.5466">
        <ele>657.2</ele>
        <time>2015-04-01T11:18:51Z</time>
      </trkpt>
      <trkpt lat="43.3491" lon="5.54675">
        <ele>658.7</ele>
        <time>2015-04-01T11:19:19Z</time>
      </trkpt>
      <trkpt lat="43.34893" lon="5.54678">
        <ele>663.2</ele>
        <time>2015-04-01T11:19:33Z</time>
      </trkpt>
      <trkpt lat="43.34875" lon="5.54676">
        <ele>663.5</ele>
        <time>2015-04-01T11:19:48Z</time>
      </trkpt>
      <trkpt lat="43.34858" lon="5.54673">
        <ele>665</ele>
        <time>2015-04-01T11:20:01Z</time>
      </trkpt>
      <trkpt lat="43.34857" lon="5.54673">
        <ele>665</ele>
        <time>2015-04-01T11:20:02Z</time>
      </trkpt>
      <trkpt lat="43.3483" lon="5.54698">
        <ele>663.9</ele>
        <time>2015-04-01T11:20:31Z</time>
      </trkpt>
      <trkpt lat="43.34817" lon="5.54715">
        <ele>665.2</ele>
        <time>2015-04-01T11:20:51Z</time>
      </trkpt>
      <trkpt lat="43.34809" lon="5.54737">
        <ele>663</ele>
        <time>2015-04-01T11:21:10Z</time>
      </trkpt>
      <trkpt lat="43.34808" lon="5.54738">
        <ele>663</ele>
        <time>2015-04-01T11:21:11Z</time>
      </trkpt>
      <trkpt lat="43.34793" lon="5.54779">
        <ele>662.4</ele>
        <time>2015-04-01T11:21:43Z</time>
      </trkpt>
      <trkpt lat="43.34782" lon="5.54799">
        <ele>663.2</ele>
        <time>2015-04-01T11:21:58Z</time>
      </trkpt>
      <trkpt lat="43.34772" lon="5.54819">
        <ele>664.2</ele>
        <time>2015-04-01T11:22:14Z</time>
      </trkpt>
      <trkpt lat="43.34771" lon="5.5482">
        <ele>664.4</ele>
        <time>2015-04-01T11:22:15Z</time>
      </trkpt>
      <trkpt lat="43.34742" lon="5.5484">
        <ele>669</ele>
        <time>2015-04-01T11:22:46Z</time>
      </trkpt>
      <trkpt lat="43.34725" lon="5.54833">
        <ele>672.2</ele>
        <time>2015-04-01T11:23:02Z</time>
      </trkpt>
      <trkpt lat="43.3471" lon="5.54821">
        <ele>674.4</ele>
        <time>2015-04-01T11:23:18Z</time>
      </trkpt>
      <trkpt lat="43.34709" lon="5.5482">
        <ele>674.4</ele>
        <time>2015-04-01T11:23:19Z</time>
      </trkpt>
      <trkpt lat="43.34679" lon="5.54798">
        <ele>677.4</ele>
        <time>2015-04-01T11:23:49Z</time>
      </trkpt>
      <trkpt lat="43.34664" lon="5.54785">
        <ele>679.2</ele>
        <time>2015-04-01T11:24:04Z</time>
      </trkpt>
      <trkpt lat="43.34652" lon="5.5477">
        <ele>680</ele>
        <time>2015-04-01T11:24:19Z</time>
      </trkpt>
      <trkpt lat="43.34651" lon="5.54768">
        <ele>679.7</ele>
        <time>2015-04-01T11:24:20Z</time>
      </trkpt>
      <trkpt lat="43.34633" lon="5.54729">
        <ele>679.5</ele>
        <time>2015-04-01T11:24:50Z</time>
      </trkpt>
      <trkpt lat="43.34622" lon="5.54711">
        <ele>682</ele>
        <time>2015-04-01T11:25:05Z</time>
      </trkpt>
      <trkpt lat="43.34609" lon="5.54694">
        <ele>683.9</ele>
        <time>2015-04-01T11:25:22Z</time>
      </trkpt>
      <trkpt lat="43.34608" lon="5.54693">
        <ele>684</ele>
        <time>2015-04-01T11:25:23Z</time>
      </trkpt>
      <trkpt lat="43.34583" lon="5.54663">
        <ele>689</ele>
        <time>2015-04-01T11:25:58Z</time>
      </trkpt>
      <trkpt lat="43.34571" lon="5.54645">
        <ele>689.9</ele>
        <time>2015-04-01T11:26:14Z</time>
      </trkpt>
      <trkpt lat="43.34559" lon="5.54627">
        <ele>691.7</ele>
        <time>2015-04-01T11:26:37Z</time>
      </trkpt>
      <trkpt lat="43.34558" lon="5.54626">
        <ele>692</ele>
        <time>2015-04-01T11:26:38Z</time>
      </trkpt>
      <trkpt lat="43.3453" lon="5.54615">
        <ele>695</ele>
        <time>2015-04-01T11:31:23Z</time>
      </trkpt>
      <trkpt lat="43.34529" lon="5.54615">
        <ele>695</ele>
        <time>2015-04-01T11:31:24Z</time>
      </trkpt>
      <trkpt lat="43.3451" lon="5.54655">
        <ele>694.5</ele>
        <time>2015-04-01T11:32:04Z</time>
      </trkpt>
      <trkpt lat="43.345" lon="5.54676">
        <ele>697.2</ele>
        <time>2015-04-01T11:32:24Z</time>
      </trkpt>
      <trkpt lat="43.345" lon="5.54677">
        <ele>697.2</ele>
        <time>2015-04-01T11:32:25Z</time>
      </trkpt>
      <trkpt lat="43.3448" lon="5.54715">
        <ele>700.4</ele>
        <time>2015-04-01T11:33:04Z</time>
      </trkpt>
      <trkpt lat="43.34469" lon="5.54734">
        <ele>703</ele>
        <time>2015-04-01T11:33:24Z</time>
      </trkpt>
      <trkpt lat="43.34458" lon="5.54753">
        <ele>705.9</ele>
        <time>2015-04-01T11:33:44Z</time>
      </trkpt>
      <trkpt lat="43.34458" lon="5.54755">
        <ele>705.9</ele>
        <time>2015-04-01T11:33:45Z</time>
      </trkpt>
      <trkpt lat="43.3445" lon="5.548">
        <ele>709.9</ele>
        <time>2015-04-01T11:34:17Z</time>
      </trkpt>
      <trkpt lat="43.34449" lon="5.54824">
        <ele>711.4</ele>
        <time>2015-04-01T11:34:36Z</time>
      </trkpt>
      <trkpt lat="43.34449" lon="5.54848">
        <ele>713.2</ele>
        <time>2015-04-01T11:34:54Z</time>
      </trkpt>
      <trkpt lat="43.34449" lon="5.54849">
        <ele>713.4</ele>
        <time>2015-04-01T11:34:55Z</time>
      </trkpt>
      <trkpt lat="43.34434" lon="5.5488">
        <ele>720</ele>
        <time>2015-04-01T11:35:45Z</time>
      </trkpt>
      <trkpt lat="43.34423" lon="5.54862">
        <ele>719.9</ele>
        <time>2015-04-01T11:36:01Z</time>
      </trkpt>
      <trkpt lat="43.34422" lon="5.5486">
        <ele>719.9</ele>
        <time>2015-04-01T11:36:02Z</time>
      </trkpt>
      <trkpt lat="43.34393" lon="5.54839">
        <ele>721.2</ele>
        <time>2015-04-01T11:36:32Z</time>
      </trkpt>
      <trkpt lat="43.34377" lon="5.54849">
        <ele>719.4</ele>
        <time>2015-04-01T11:37:02Z</time>
      </trkpt>
      <trkpt lat="43.34377" lon="5.54849">
        <ele>719.2</ele>
        <time>2015-04-01T11:37:03Z</time>
      </trkpt>
      <trkpt lat="43.34343" lon="5.5486">
        <ele>714</ele>
        <time>2015-04-01T11:37:50Z</time>
      </trkpt>
      <trkpt lat="43.34326" lon="5.54866">
        <ele>712.4</ele>
        <time>2015-04-01T11:38:06Z</time>
      </trkpt>
      <trkpt lat="43.34325" lon="5.54867">
        <ele>712.2</ele>
        <time>2015-04-01T11:38:07Z</time>
      </trkpt>
      <trkpt lat="43.34294" lon="5.54883">
        <ele>709</ele>
        <time>2015-04-01T11:38:38Z</time>
      </trkpt>
      <trkpt lat="43.34278" lon="5.54887">
        <ele>707.4</ele>
        <time>2015-04-01T11:38:53Z</time>
      </trkpt>
      <trkpt lat="43.3426" lon="5.5489">
        <ele>705.7</ele>
        <time>2015-04-01T11:39:08Z</time>
      </trkpt>
      <trkpt lat="43.34259" lon="5.5489">
        <ele>705.7</ele>
        <time>2015-04-01T11:39:09Z</time>
      </trkpt>
      <trkpt lat="43.34227" lon="5.54904">
        <ele>702.7</ele>
        <time>2015-04-01T11:39:40Z</time>
      </trkpt>
      <trkpt lat="43.34212" lon="5.54917">
        <ele>701.4</ele>
        <time>2015-04-01T11:39:56Z</time>
      </trkpt>
      <trkpt lat="43.34195" lon="5.54921">
        <ele>699</ele>
        <time>2015-04-01T11:40:14Z</time>
      </trkpt>
      <trkpt lat="43.34194" lon="5.54921">
        <ele>699</ele>
        <time>2015-04-01T11:40:15Z</time>
      </trkpt>
      <trkpt lat="43.3416" lon="5.54914">
        <ele>695.5</ele>
        <time>2015-04-01T11:40:47Z</time>
      </trkpt>
      <trkpt lat="43.34143" lon="5.54908">
        <ele>693.7</ele>
        <time>2015-04-01T11:41:14Z</time>
      </trkpt>
      <trkpt lat="43.34128" lon="5.54896">
        <ele>691.7</ele>
        <time>2015-04-01T11:41:32Z</time>
      </trkpt>
      <trkpt lat="43.34127" lon="5.54896">
        <ele>691.5</ele>
        <time>2015-04-01T11:41:33Z</time>
      </trkpt>
      <trkpt lat="43.34098" lon="5.54871">
        <ele>687.2</ele>
        <time>2015-04-01T11:42:03Z</time>
      </trkpt>
      <trkpt lat="43.34083" lon="5.5486">
        <ele>684.7</ele>
        <time>2015-04-01T11:42:19Z</time>
      </trkpt>
      <trkpt lat="43.34065" lon="5.54856">
        <ele>682</ele>
        <time>2015-04-01T11:42:36Z</time>
      </trkpt>
      <trkpt lat="43.34064" lon="5.54856">
        <ele>681.9</ele>
        <time>2015-04-01T11:42:37Z</time>
      </trkpt>
      <trkpt lat="43.34035" lon="5.54836">
        <ele>674.2</ele>
        <time>2015-04-01T11:43:16Z</time>
      </trkpt>
      <trkpt lat="43.34019" lon="5.54825">
        <ele>670.5</ele>
        <time>2015-04-01T11:43:37Z</time>
      </trkpt>
      <trkpt lat="43.34019" lon="5.54824">
        <ele>670.4</ele>
        <time>2015-04-01T11:43:38Z</time>
      </trkpt>
      <trkpt lat="43.33988" lon="5.54834">
        <ele>668</ele>
        <time>2015-04-01T11:44:53Z</time>
      </trkpt>
      <trkpt lat="43.33987" lon="5.54835">
        <ele>668</ele>
        <time>2015-04-01T11:44:54Z</time>
      </trkpt>
      <trkpt lat="43.33956" lon="5.54834">
        <ele>661.4</ele>
        <time>2015-04-01T11:45:47Z</time>
      </trkpt>
      <trkpt lat="43.33938" lon="5.54833">
        <ele>659.7</ele>
        <time>2015-04-01T11:46:04Z</time>
      </trkpt>
      <trkpt lat="43.33937" lon="5.54833">
        <ele>659.5</ele>
        <time>2015-04-01T11:46:05Z</time>
      </trkpt>
      <trkpt lat="43.33903" lon="5.54835">
        <ele>654</ele>
        <time>2015-04-01T11:46:38Z</time>
      </trkpt>
      <trkpt lat="43.33885" lon="5.54834">
        <ele>652</ele>
        <time>2015-04-01T11:46:54Z</time>
      </trkpt>
      <trkpt lat="43.33868" lon="5.54828">
        <ele>650</ele>
        <time>2015-04-01T11:47:14Z</time>
      </trkpt>
      <trkpt lat="43.33867" lon="5.54827">
        <ele>649.9</ele>
        <time>2015-04-01T11:47:15Z</time>
      </trkpt>
      <trkpt lat="43.33834" lon="5.54823">
        <ele>647.2</ele>
        <time>2015-04-01T11:47:42Z</time>
      </trkpt>
      <trkpt lat="43.33816" lon="5.54824">
        <ele>647.5</ele>
        <time>2015-04-01T11:48:07Z</time>
      </trkpt>
      <trkpt lat="43.338" lon="5.54821">
        <ele>646</ele>
        <time>2015-04-01T11:48:21Z</time>
      </trkpt>
      <trkpt lat="43.33798" lon="5.54821">
        <ele>646</ele>
        <time>2015-04-01T11:48:22Z</time>
      </trkpt>
      <trkpt lat="43.33766" lon="5.54818">
        <ele>643.2</ele>
        <time>2015-04-01T11:48:48Z</time>
      </trkpt>
      <trkpt lat="43.33748" lon="5.54817">
        <ele>642.4</ele>
        <time>2015-04-01T11:49:03Z</time>
      </trkpt>
      <trkpt lat="43.3373" lon="5.5482">
        <ele>641.5</ele>
        <time>2015-04-01T11:49:18Z</time>
      </trkpt>
      <trkpt lat="43.33713" lon="5.54824">
        <ele>640.7</ele>
        <time>2015-04-01T11:49:33Z</time>
      </trkpt>
      <trkpt lat="43.33712" lon="5.54824">
        <ele>640.5</ele>
        <time>2015-04-01T11:49:34Z</time>
      </trkpt>
      <trkpt lat="43.33679" lon="5.54833">
        <ele>640</ele>
        <time>2015-04-01T11:50:04Z</time>
      </trkpt>
      <trkpt lat="43.33661" lon="5.54837">
        <ele>640.2</ele>
        <time>2015-04-01T11:50:20Z</time>
      </trkpt>
      <trkpt lat="43.33645" lon="5.54842">
        <ele>639.7</ele>
        <time>2015-04-01T11:50:35Z</time>
      </trkpt>
      <trkpt lat="43.33644" lon="5.54843">
        <ele>639.7</ele>
        <time>2015-04-01T11:50:36Z</time>
      </trkpt>
      <trkpt lat="43.33613" lon="5.54863">
        <ele>639.5</ele>
        <time>2015-04-01T11:51:07Z</time>
      </trkpt>
      <trkpt lat="43.336" lon="5.54877">
        <ele>639.7</ele>
        <time>2015-04-01T11:51:23Z</time>
      </trkpt>
      <trkpt lat="43.3359" lon="5.54897">
        <ele>639.4</ele>
        <time>2015-04-01T11:51:39Z</time>
      </trkpt>
      <trkpt lat="43.33589" lon="5.54899">
        <ele>639.2</ele>
        <time>2015-04-01T11:51:40Z</time>
      </trkpt>
      <trkpt lat="43.33577" lon="5.54942">
        <ele>637.7</ele>
        <time>2015-04-01T11:52:10Z</time>
      </trkpt>
      <trkpt lat="43.33572" lon="5.54964">
        <ele>637.2</ele>
        <time>2015-04-01T11:52:25Z</time>
      </trkpt>
      <trkpt lat="43.33567" lon="5.54988">
        <ele>636.2</ele>
        <time>2015-04-01T11:52:40Z</time>
      </trkpt>
      <trkpt lat="43.33567" lon="5.54989">
        <ele>636</ele>
        <time>2015-04-01T11:52:41Z</time>
      </trkpt>
      <trkpt lat="43.33555" lon="5.55033">
        <ele>635</ele>
        <time>2015-04-01T11:53:09Z</time>
      </trkpt>
      <trkpt lat="43.33547" lon="5.55055">
        <ele>633.4</ele>
        <time>2015-04-01T11:53:25Z</time>
      </trkpt>
      <trkpt lat="43.33544" lon="5.55079">
        <ele>633</ele>
        <time>2015-04-01T11:53:42Z</time>
      </trkpt>
      <trkpt lat="43.33544" lon="5.5508">
        <ele>632.9</ele>
        <time>2015-04-01T11:53:43Z</time>
      </trkpt>
      <trkpt lat="43.33537" lon="5.55123">
        <ele>627</ele>
        <time>2015-04-01T11:55:36Z</time>
      </trkpt>
      <trkpt lat="43.33537" lon="5.55124">
        <ele>626.5</ele>
        <time>2015-04-01T11:55:37Z</time>
      </trkpt>
      <trkpt lat="43.33539" lon="5.55171">
        <ele>622.7</ele>
        <time>2015-04-01T11:56:09Z</time>
      </trkpt>
      <trkpt lat="43.33543" lon="5.55194">
        <ele>623.2</ele>
        <time>2015-04-01T11:56:27Z</time>
      </trkpt>
      <trkpt lat="43.33548" lon="5.55216">
        <ele>622.4</ele>
        <time>2015-04-01T11:56:43Z</time>
      </trkpt>
      <trkpt lat="43.33549" lon="5.55218">
        <ele>622.4</ele>
        <time>2015-04-01T11:56:44Z</time>
      </trkpt>
      <trkpt lat="43.33563" lon="5.55259">
        <ele>621.4</ele>
        <time>2015-04-01T11:57:15Z</time>
      </trkpt>
      <trkpt lat="43.33566" lon="5.55283">
        <ele>619.9</ele>
        <time>2015-04-01T11:57:38Z</time>
      </trkpt>
      <trkpt lat="43.33561" lon="5.55306">
        <ele>617.2</ele>
        <time>2015-04-01T11:57:54Z</time>
      </trkpt>
      <trkpt lat="43.3356" lon="5.55307">
        <ele>617.2</ele>
        <time>2015-04-01T11:57:55Z</time>
      </trkpt>
      <trkpt lat="43.33552" lon="5.55351">
        <ele>611.4</ele>
        <time>2015-04-01T11:58:31Z</time>
      </trkpt>
      <trkpt lat="43.33545" lon="5.55374">
        <ele>609.5</ele>
        <time>2015-04-01T11:58:46Z</time>
      </trkpt>
      <trkpt lat="43.33536" lon="5.55395">
        <ele>608.5</ele>
        <time>2015-04-01T11:59:03Z</time>
      </trkpt>
      <trkpt lat="43.33535" lon="5.55396">
        <ele>608.2</ele>
        <time>2015-04-01T11:59:04Z</time>
      </trkpt>
      <trkpt lat="43.33523" lon="5.55439">
        <ele>602.7</ele>
        <time>2015-04-01T11:59:43Z</time>
      </trkpt>
      <trkpt lat="43.33519" lon="5.55463">
        <ele>600.2</ele>
        <time>2015-04-01T12:00:03Z</time>
      </trkpt>
      <trkpt lat="43.33512" lon="5.55485">
        <ele>600</ele>
        <time>2015-04-01T12:00:18Z</time>
      </trkpt>
      <trkpt lat="43.33512" lon="5.55486">
        <ele>599.9</ele>
        <time>2015-04-01T12:00:19Z</time>
      </trkpt>
      <trkpt lat="43.335" lon="5.55529">
        <ele>594.4</ele>
        <time>2015-04-01T12:00:54Z</time>
      </trkpt>
      <trkpt lat="43.33491" lon="5.55551">
        <ele>590.4</ele>
        <time>2015-04-01T12:01:36Z</time>
      </trkpt>
      <trkpt lat="43.33491" lon="5.55551">
        <ele>590.4</ele>
        <time>2015-04-01T12:01:37Z</time>
      </trkpt>
      <trkpt lat="43.33479" lon="5.55569">
        <ele>590.7</ele>
        <time>2015-04-01T12:04:11Z</time>
      </trkpt>
      <trkpt lat="43.33452" lon="5.55598">
        <ele>582</ele>
        <time>2015-04-01T12:04:49Z</time>
      </trkpt>
      <trkpt lat="43.33437" lon="5.55611">
        <ele>581.9</ele>
        <time>2015-04-01T12:05:05Z</time>
      </trkpt>
      <trkpt lat="43.33422" lon="5.55625">
        <ele>579.2</ele>
        <time>2015-04-01T12:05:23Z</time>
      </trkpt>
      <trkpt lat="43.33421" lon="5.55625">
        <ele>579.2</ele>
        <time>2015-04-01T12:05:24Z</time>
      </trkpt>
      <trkpt lat="43.33393" lon="5.55648">
        <ele>573.4</ele>
        <time>2015-04-01T12:05:57Z</time>
      </trkpt>
      <trkpt lat="43.33378" lon="5.55658">
        <ele>573.2</ele>
        <time>2015-04-01T12:06:12Z</time>
      </trkpt>
      <trkpt lat="43.33361" lon="5.55668">
        <ele>572.5</ele>
        <time>2015-04-01T12:06:29Z</time>
      </trkpt>
      <trkpt lat="43.33361" lon="5.55668">
        <ele>572.5</ele>
        <time>2015-04-01T12:06:30Z</time>
      </trkpt>
      <trkpt lat="43.33339" lon="5.55695">
        <ele>563.5</ele>
        <time>2015-04-01T12:07:27Z</time>
      </trkpt>
      <trkpt lat="43.33322" lon="5.55689">
        <ele>560.2</ele>
        <time>2015-04-01T12:07:49Z</time>
      </trkpt>
      <trkpt lat="43.33321" lon="5.55688">
        <ele>560</ele>
        <time>2015-04-01T12:07:50Z</time>
      </trkpt>
      <trkpt lat="43.33289" lon="5.55674">
        <ele>551</ele>
        <time>2015-04-01T12:08:38Z</time>
      </trkpt>
      <trkpt lat="43.33271" lon="5.55673">
        <ele>541.2</ele>
        <time>2015-04-01T12:09:13Z</time>
      </trkpt>
      <trkpt lat="43.33271" lon="5.55672">
        <ele>541</ele>
        <time>2015-04-01T12:09:14Z</time>
      </trkpt>
      <trkpt lat="43.33238" lon="5.5568">
        <ele>533</ele>
        <time>2015-04-01T12:09:59Z</time>
      </trkpt>
      <trkpt lat="43.33221" lon="5.55684">
        <ele>525.9</ele>
        <time>2015-04-01T12:10:23Z</time>
      </trkpt>
      <trkpt lat="43.3322" lon="5.55684">
        <ele>525.7</ele>
        <time>2015-04-01T12:10:24Z</time>
      </trkpt>
      <trkpt lat="43.33209" lon="5.55703">
        <ele>524.4</ele>
        <time>2015-04-01T12:18:08Z</time>
      </trkpt>
      <trkpt lat="43.33201" lon="5.5575">
        <ele>519</ele>
        <time>2015-04-01T12:18:52Z</time>
      </trkpt>
      <trkpt lat="43.33197" lon="5.55774">
        <ele>514.2</ele>
        <time>2015-04-01T12:19:14Z</time>
      </trkpt>
      <trkpt lat="43.33197" lon="5.55775">
        <ele>514</ele>
        <time>2015-04-01T12:19:15Z</time>
      </trkpt>
      <trkpt lat="43.33189" lon="5.55821">
        <ele>507.2</ele>
        <time>2015-04-01T12:20:08Z</time>
      </trkpt>
      <trkpt lat="43.3319" lon="5.55845">
        <ele>500.1</ele>
        <time>2015-04-01T12:20:38Z</time>
      </trkpt>
      <trkpt lat="43.3319" lon="5.55846">
        <ele>500.1</ele>
        <time>2015-04-01T12:20:39Z</time>
      </trkpt>
      <trkpt lat="43.33186" lon="5.55893">
        <ele>492.1</ele>
        <time>2015-04-01T12:21:28Z</time>
      </trkpt>
      <trkpt lat="43.33185" lon="5.55917">
        <ele>489.5</ele>
        <time>2015-04-01T12:21:47Z</time>
      </trkpt>
      <trkpt lat="43.33186" lon="5.55918">
        <ele>489.2</ele>
        <time>2015-04-01T12:21:48Z</time>
      </trkpt>
      <trkpt lat="43.33183" lon="5.55964">
        <ele>480</ele>
        <time>2015-04-01T12:22:31Z</time>
      </trkpt>
      <trkpt lat="43.33174" lon="5.55985">
        <ele>479.2</ele>
        <time>2015-04-01T12:22:49Z</time>
      </trkpt>
      <trkpt lat="43.33173" lon="5.55986">
        <ele>478.7</ele>
        <time>2015-04-01T12:22:50Z</time>
      </trkpt>
      <trkpt lat="43.33157" lon="5.56026">
        <ele>475.7</ele>
        <time>2015-04-01T12:23:25Z</time>
      </trkpt>
      <trkpt lat="43.33152" lon="5.5605">
        <ele>471.5</ele>
        <time>2015-04-01T12:23:45Z</time>
      </trkpt>
      <trkpt lat="43.33137" lon="5.56061">
        <ele>470.7</ele>
        <time>2015-04-01T12:24:19Z</time>
      </trkpt>
      <trkpt lat="43.33136" lon="5.56061">
        <ele>470.7</ele>
        <time>2015-04-01T12:24:20Z</time>
      </trkpt>
      <trkpt lat="43.33126" lon="5.56083">
        <ele>456.1</ele>
        <time>2015-04-01T12:25:21Z</time>
      </trkpt>
      <trkpt lat="43.33126" lon="5.56084">
        <ele>455.7</ele>
        <time>2015-04-01T12:25:22Z</time>
      </trkpt>
      <trkpt lat="43.33136" lon="5.56129">
        <ele>437.2</ele>
        <time>2015-04-01T12:26:21Z</time>
      </trkpt>
      <trkpt lat="43.3312" lon="5.56139">
        <ele>439.3</ele>
        <time>2015-04-01T12:26:43Z</time>
      </trkpt>
      <trkpt lat="43.3312" lon="5.56138">
        <ele>439.2</ele>
        <time>2015-04-01T12:26:44Z</time>
      </trkpt>
      <trkpt lat="43.33087" lon="5.56122">
        <ele>434.1</ele>
        <time>2015-04-01T12:27:23Z</time>
      </trkpt>
      <trkpt lat="43.33071" lon="5.56112">
        <ele>431.2</ele>
        <time>2015-04-01T12:27:41Z</time>
      </trkpt>
      <trkpt lat="43.33055" lon="5.56103">
        <ele>428.1</ele>
        <time>2015-04-01T12:27:59Z</time>
      </trkpt>
      <trkpt lat="43.33055" lon="5.56102">
        <ele>427.8</ele>
        <time>2015-04-01T12:28:00Z</time>
      </trkpt>
      <trkpt lat="43.33024" lon="5.5608">
        <ele>420.7</ele>
        <time>2015-04-01T12:28:43Z</time>
      </trkpt>
      <trkpt lat="43.33014" lon="5.5606">
        <ele>415.6</ele>
        <time>2015-04-01T12:29:10Z</time>
      </trkpt>
      <trkpt lat="43.33014" lon="5.56059">
        <ele>415.2</ele>
        <time>2015-04-01T12:29:11Z</time>
      </trkpt>
      <trkpt lat="43.32989" lon="5.56031">
        <ele>409</ele>
        <time>2015-04-01T12:29:47Z</time>
      </trkpt>
      <trkpt lat="43.32971" lon="5.5603">
        <ele>405.8</ele>
        <time>2015-04-01T12:30:04Z</time>
      </trkpt>
      <trkpt lat="43.32953" lon="5.56029">
        <ele>401.2</ele>
        <time>2015-04-01T12:30:29Z</time>
      </trkpt>
      <trkpt lat="43.32953" lon="5.56029">
        <ele>401.2</ele>
        <time>2015-04-01T12:30:30Z</time>
      </trkpt>
      <trkpt lat="43.32963" lon="5.56051">
        <ele>387.6</ele>
        <time>2015-04-01T12:34:17Z</time>
      </trkpt>
      <trkpt lat="43.3298" lon="5.56092">
        <ele>381.1</ele>
        <time>2015-04-01T12:35:17Z</time>
      </trkpt>
      <trkpt lat="43.3298" lon="5.56092">
        <ele>380.8</ele>
        <time>2015-04-01T12:35:18Z</time>
      </trkpt>
      <trkpt lat="43.32969" lon="5.56136">
        <ele>372</ele>
        <time>2015-04-01T12:36:02Z</time>
      </trkpt>
      <trkpt lat="43.32966" lon="5.5616">
        <ele>369.8</ele>
        <time>2015-04-01T12:36:22Z</time>
      </trkpt>
      <trkpt lat="43.32966" lon="5.56161">
        <ele>369.5</ele>
        <time>2015-04-01T12:36:23Z</time>
      </trkpt>
      <trkpt lat="43.32965" lon="5.56208">
        <ele>358</ele>
        <time>2015-04-01T12:37:09Z</time>
      </trkpt>
      <trkpt lat="43.32978" lon="5.56222">
        <ele>353.1</ele>
        <time>2015-04-01T12:37:29Z</time>
      </trkpt>
      <trkpt lat="43.32979" lon="5.56223">
        <ele>352.8</ele>
        <time>2015-04-01T12:37:30Z</time>
      </trkpt>
      <trkpt lat="43.32987" lon="5.56268">
        <ele>342.7</ele>
        <time>2015-04-01T12:38:18Z</time>
      </trkpt>
      <trkpt lat="43.32982" lon="5.56292">
        <ele>338.7</ele>
        <time>2015-04-01T12:38:39Z</time>
      </trkpt>
      <trkpt lat="43.32982" lon="5.56293">
        <ele>338.5</ele>
        <time>2015-04-01T12:38:40Z</time>
      </trkpt>
      <trkpt lat="43.32973" lon="5.56339">
        <ele>327.7</ele>
        <time>2015-04-01T12:39:28Z</time>
      </trkpt>
      <trkpt lat="43.32958" lon="5.56352">
        <ele>325.2</ele>
        <time>2015-04-01T12:39:46Z</time>
      </trkpt>
      <trkpt lat="43.32957" lon="5.56353">
        <ele>325</ele>
        <time>2015-04-01T12:39:47Z</time>
      </trkpt>
      <trkpt lat="43.32935" lon="5.56389">
        <ele>317.7</ele>
        <time>2015-04-01T12:40:22Z</time>
      </trkpt>
      <trkpt lat="43.32927" lon="5.56369">
        <ele>322.5</ele>
        <time>2015-04-01T12:48:54Z</time>
      </trkpt>
      <trkpt lat="43.32926" lon="5.56368">
        <ele>322.5</ele>
        <time>2015-04-01T12:48:55Z</time>
      </trkpt>
      <trkpt lat="43.32908" lon="5.56327">
        <ele>313</ele>
        <time>2015-04-01T12:49:32Z</time>
      </trkpt>
      <trkpt lat="43.32897" lon="5.56309">
        <ele>312.2</ele>
        <time>2015-04-01T12:49:48Z</time>
      </trkpt>
      <trkpt lat="43.32884" lon="5.56293">
        <ele>312.2</ele>
        <time>2015-04-01T12:50:03Z</time>
      </trkpt>
      <trkpt lat="43.32883" lon="5.56292">
        <ele>312.2</ele>
        <time>2015-04-01T12:50:04Z</time>
      </trkpt>
      <trkpt lat="43.32857" lon="5.56265">
        <ele>310.2</ele>
        <time>2015-04-01T12:50:34Z</time>
      </trkpt>
      <trkpt lat="43.32847" lon="5.56246">
        <ele>309.1</ele>
        <time>2015-04-01T12:50:51Z</time>
      </trkpt>
      <trkpt lat="43.32836" lon="5.56228">
        <ele>310.7</ele>
        <time>2015-04-01T12:51:09Z</time>
      </trkpt>
      <trkpt lat="43.32835" lon="5.56227">
        <ele>310.7</ele>
        <time>2015-04-01T12:51:10Z</time>
      </trkpt>
      <trkpt lat="43.32803" lon="5.56219">
        <ele>316.2</ele>
        <time>2015-04-01T12:51:44Z</time>
      </trkpt>
      <trkpt lat="43.32788" lon="5.56233">
        <ele>317.5</ele>
        <time>2015-04-01T12:52:04Z</time>
      </trkpt>
      <trkpt lat="43.32771" lon="5.5624">
        <ele>316.2</ele>
        <time>2015-04-01T12:52:23Z</time>
      </trkpt>
      <trkpt lat="43.3277" lon="5.5624">
        <ele>316.5</ele>
        <time>2015-04-01T12:52:24Z</time>
      </trkpt>
      <trkpt lat="43.32738" lon="5.56224">
        <ele>323.6</ele>
        <time>2015-04-01T12:52:57Z</time>
      </trkpt>
      <trkpt lat="43.32724" lon="5.5621">
        <ele>325.1</ele>
        <time>2015-04-01T12:53:15Z</time>
      </trkpt>
      <trkpt lat="43.32711" lon="5.56195">
        <ele>326.2</ele>
        <time>2015-04-01T12:53:32Z</time>
      </trkpt>
      <trkpt lat="43.3271" lon="5.56194">
        <ele>326.2</ele>
        <time>2015-04-01T12:53:33Z</time>
      </trkpt>
      <trkpt lat="43.32679" lon="5.56183">
        <ele>330.7</ele>
        <time>2015-04-01T12:54:05Z</time>
      </trkpt>
      <trkpt lat="43.32667" lon="5.562">
        <ele>324.2</ele>
        <time>2015-04-01T12:54:23Z</time>
      </trkpt>
      <trkpt lat="43.32656" lon="5.56219">
        <ele>322.3</ele>
        <time>2015-04-01T12:54:40Z</time>
      </trkpt>
      <trkpt lat="43.32655" lon="5.5622">
        <ele>322.2</ele>
        <time>2015-04-01T12:54:41Z</time>
      </trkpt>
      <trkpt lat="43.32625" lon="5.56239">
        <ele>322.1</ele>
        <time>2015-04-01T12:55:12Z</time>
      </trkpt>
      <trkpt lat="43.32607" lon="5.56238">
        <ele>321.6</ele>
        <time>2015-04-01T12:55:29Z</time>
      </trkpt>
      <trkpt lat="43.3259" lon="5.56242">
        <ele>320</ele>
        <time>2015-04-01T12:55:45Z</time>
      </trkpt>
      <trkpt lat="43.32589" lon="5.56242">
        <ele>319.8</ele>
        <time>2015-04-01T12:55:46Z</time>
      </trkpt>
      <trkpt lat="43.32555" lon="5.56238">
        <ele>317.1</ele>
        <time>2015-04-01T12:56:15Z</time>
      </trkpt>
      <trkpt lat="43.32538" lon="5.56239">
        <ele>315.3</ele>
        <time>2015-04-01T12:56:31Z</time>
      </trkpt>
      <trkpt lat="43.32521" lon="5.56243">
        <ele>313.8</ele>
        <time>2015-04-01T12:56:47Z</time>
      </trkpt>
      <trkpt lat="43.3252" lon="5.56244">
        <ele>314</ele>
        <time>2015-04-01T12:56:48Z</time>
      </trkpt>
      <trkpt lat="43.32487" lon="5.56246">
        <ele>314.3</ele>
        <time>2015-04-01T12:57:19Z</time>
      </trkpt>
      <trkpt lat="43.32469" lon="5.56249">
        <ele>312.7</ele>
        <time>2015-04-01T12:57:47Z</time>
      </trkpt>
      <trkpt lat="43.32452" lon="5.5625">
        <ele>311.7</ele>
        <time>2015-04-01T12:58:03Z</time>
      </trkpt>
      <trkpt lat="43.32451" lon="5.56249">
        <ele>311.7</ele>
        <time>2015-04-01T12:58:04Z</time>
      </trkpt>
      <trkpt lat="43.32447" lon="5.56205">
        <ele>306.2</ele>
        <time>2015-04-01T12:58:35Z</time>
      </trkpt>
      <trkpt lat="43.32452" lon="5.56182">
        <ele>304.3</ele>
        <time>2015-04-01T12:58:51Z</time>
      </trkpt>
      <trkpt lat="43.32466" lon="5.56166">
        <ele>303.1</ele>
        <time>2015-04-01T12:59:07Z</time>
      </trkpt>
      <trkpt lat="43.32467" lon="5.56165">
        <ele>303</ele>
        <time>2015-04-01T12:59:08Z</time>
      </trkpt>
      <trkpt lat="43.32498" lon="5.56149">
        <ele>299.8</ele>
        <time>2015-04-01T12:59:40Z</time>
      </trkpt>
      <trkpt lat="43.32515" lon="5.56144">
        <ele>295.5</ele>
        <time>2015-04-01T12:59:56Z</time>
      </trkpt>
      <trkpt lat="43.32533" lon="5.56145">
        <ele>294.5</ele>
        <time>2015-04-01T13:00:14Z</time>
      </trkpt>
      <trkpt lat="43.32534" lon="5.56145">
        <ele>293.8</ele>
        <time>2015-04-01T13:00:15Z</time>
      </trkpt>
      <trkpt lat="43.32558" lon="5.56115">
        <ele>291.2</ele>
        <time>2015-04-01T13:01:22Z</time>
      </trkpt>
      <trkpt lat="43.32559" lon="5.56114">
        <ele>290.7</ele>
        <time>2015-04-01T13:01:23Z</time>
      </trkpt>
      <trkpt lat="43.3255" lon="5.5607">
        <ele>293.7</ele>
        <time>2015-04-01T13:01:50Z</time>
      </trkpt>
      <trkpt lat="43.32548" lon="5.56047">
        <ele>285.2</ele>
        <time>2015-04-01T13:02:07Z</time>
      </trkpt>
      <trkpt lat="43.3254" lon="5.56026">
        <ele>282</ele>
        <time>2015-04-01T13:02:22Z</time>
      </trkpt>
      <trkpt lat="43.3253" lon="5.56006">
        <ele>278.2</ele>
        <time>2015-04-01T13:02:37Z</time>
      </trkpt>
      <trkpt lat="43.32529" lon="5.56005">
        <ele>278.3</ele>
        <time>2015-04-01T13:02:38Z</time>
      </trkpt>
      <trkpt lat="43.32506" lon="5.5597">
        <ele>275.5</ele>
        <time>2015-04-01T13:03:05Z</time>
      </trkpt>
      <trkpt lat="43.32494" lon="5.55953">
        <ele>277.1</ele>
        <time>2015-04-01T13:03:20Z</time>
      </trkpt>
      <trkpt lat="43.32478" lon="5.5594">
        <ele>274.2</ele>
        <time>2015-04-01T13:03:38Z</time>
      </trkpt>
      <trkpt lat="43.32477" lon="5.55939">
        <ele>274.2</ele>
        <time>2015-04-01T13:03:39Z</time>
      </trkpt>
      <trkpt lat="43.3246" lon="5.559">
        <ele>270.3</ele>
        <time>2015-04-01T13:04:08Z</time>
      </trkpt>
      <trkpt lat="43.32452" lon="5.55878">
        <ele>273.7</ele>
        <time>2015-04-01T13:04:22Z</time>
      </trkpt>
      <trkpt lat="43.32444" lon="5.55857">
        <ele>272.1</ele>
        <time>2015-04-01T13:04:41Z</time>
      </trkpt>
      <trkpt lat="43.32443" lon="5.55856">
        <ele>272.2</ele>
        <time>2015-04-01T13:04:42Z</time>
      </trkpt>
      <trkpt lat="43.3242" lon="5.55823">
        <ele>279.3</ele>
        <time>2015-04-01T13:05:14Z</time>
      </trkpt>
      <trkpt lat="43.32403" lon="5.55818">
        <ele>282.6</ele>
        <time>2015-04-01T13:05:28Z</time>
      </trkpt>
      <trkpt lat="43.32386" lon="5.55823">
        <ele>285</ele>
        <time>2015-04-01T13:05:43Z</time>
      </trkpt>
      <trkpt lat="43.32385" lon="5.55823">
        <ele>285.2</ele>
        <time>2015-04-01T13:05:44Z</time>
      </trkpt>
      <trkpt lat="43.32353" lon="5.55837">
        <ele>286.3</ele>
        <time>2015-04-01T13:06:14Z</time>
      </trkpt>
      <trkpt lat="43.32338" lon="5.55849">
        <ele>284.7</ele>
        <time>2015-04-01T13:06:29Z</time>
      </trkpt>
      <trkpt lat="43.32321" lon="5.55854">
        <ele>283.1</ele>
        <time>2015-04-01T13:06:45Z</time>
      </trkpt>
      <trkpt lat="43.3232" lon="5.55854">
        <ele>283</ele>
        <time>2015-04-01T13:06:46Z</time>
      </trkpt>
      <trkpt lat="43.32323" lon="5.55816">
        <ele>276.7</ele>
        <time>2015-04-01T13:07:18Z</time>
      </trkpt>
      <trkpt lat="43.32337" lon="5.55801">
        <ele>276.2</ele>
        <time>2015-04-01T13:07:32Z</time>
      </trkpt>
      <trkpt lat="43.32352" lon="5.5579">
        <ele>273.5</ele>
        <time>2015-04-01T13:07:47Z</time>
      </trkpt>
      <trkpt lat="43.32354" lon="5.5579">
        <ele>273.5</ele>
        <time>2015-04-01T13:07:48Z</time>
      </trkpt>
      <trkpt lat="43.32374" lon="5.55755">
        <ele>270.3</ele>
        <time>2015-04-01T13:09:08Z</time>
      </trkpt>
      <trkpt lat="43.32375" lon="5.55754">
        <ele>270.3</ele>
        <time>2015-04-01T13:09:09Z</time>
      </trkpt>
      <trkpt lat="43.32403" lon="5.55729">
        <ele>270.8</ele>
        <time>2015-04-01T13:09:43Z</time>
      </trkpt>
      <trkpt lat="43.32417" lon="5.55717">
        <ele>268.6</ele>
        <time>2015-04-01T13:09:58Z</time>
      </trkpt>
      <trkpt lat="43.32432" lon="5.55705">
        <ele>268.5</ele>
        <time>2015-04-01T13:10:13Z</time>
      </trkpt>
      <trkpt lat="43.32433" lon="5.55704">
        <ele>268.6</ele>
        <time>2015-04-01T13:10:14Z</time>
      </trkpt>
      <trkpt lat="43.32454" lon="5.55669">
        <ele>271</ele>
        <time>2015-04-01T13:10:44Z</time>
      </trkpt>
      <trkpt lat="43.32444" lon="5.55649">
        <ele>273.5</ele>
        <time>2015-04-01T13:10:58Z</time>
      </trkpt>
      <trkpt lat="43.32427" lon="5.55646">
        <ele>276.1</ele>
        <time>2015-04-01T13:11:15Z</time>
      </trkpt>
      <trkpt lat="43.32426" lon="5.55647">
        <ele>276.2</ele>
        <time>2015-04-01T13:11:16Z</time>
      </trkpt>
      <trkpt lat="43.32392" lon="5.55647">
        <ele>275.7</ele>
        <time>2015-04-01T13:11:51Z</time>
      </trkpt>
      <trkpt lat="43.32376" lon="5.55641">
        <ele>276.5</ele>
        <time>2015-04-01T13:12:08Z</time>
      </trkpt>
      <trkpt lat="43.3236" lon="5.55634">
        <ele>278.1</ele>
        <time>2015-04-01T13:12:26Z</time>
      </trkpt>
      <trkpt lat="43.32359" lon="5.55634">
        <ele>278.2</ele>
        <time>2015-04-01T13:12:27Z</time>
      </trkpt>
      <trkpt lat="43.32385" lon="5.55606">
        <ele>291.3</ele>
        <time>2015-04-01T13:13:31Z</time>
      </trkpt>
      <trkpt lat="43.32386" lon="5.55605">
        <ele>291.6</ele>
        <time>2015-04-01T13:13:32Z</time>
      </trkpt>
      <trkpt lat="43.32358" lon="5.55579">
        <ele>296.6</ele>
        <time>2015-04-01T13:14:17Z</time>
      </trkpt>
      <trkpt lat="43.32341" lon="5.55581">
        <ele>295.2</ele>
        <time>2015-04-01T13:14:33Z</time>
      </trkpt>
      <trkpt lat="43.32339" lon="5.55582">
        <ele>295.2</ele>
        <time>2015-04-01T13:14:34Z</time>
      </trkpt>
      <trkpt lat="43.32307" lon="5.55592">
        <ele>292.6</ele>
        <time>2015-04-01T13:15:02Z</time>
      </trkpt>
      <trkpt lat="43.3229" lon="5.55595">
        <ele>293.8</ele>
        <time>2015-04-01T13:15:18Z</time>
      </trkpt>
      <trkpt lat="43.32273" lon="5.55601">
        <ele>293.3</ele>
        <time>2015-04-01T13:15:34Z</time>
      </trkpt>
      <trkpt lat="43.32272" lon="5.55601">
        <ele>293</ele>
        <time>2015-04-01T13:15:35Z</time>
      </trkpt>
      <trkpt lat="43.32239" lon="5.5559">
        <ele>294.3</ele>
        <time>2015-04-01T13:16:05Z</time>
      </trkpt>
      <trkpt lat="43.32222" lon="5.55585">
        <ele>295.1</ele>
        <time>2015-04-01T13:16:20Z</time>
      </trkpt>
      <trkpt lat="43.32206" lon="5.55578">
        <ele>295.6</ele>
        <time>2015-04-01T13:16:35Z</time>
      </trkpt>
      <trkpt lat="43.32205" lon="5.55578">
        <ele>295.5</ele>
        <time>2015-04-01T13:16:36Z</time>
      </trkpt>
      <trkpt lat="43.32177" lon="5.55558">
        <ele>287.8</ele>
        <time>2015-04-01T13:17:50Z</time>
      </trkpt>
      <trkpt lat="43.32177" lon="5.55559">
        <ele>287.6</ele>
        <time>2015-04-01T13:17:51Z</time>
      </trkpt>
    </trkseg>
  </trk>
</gpx>